GFSFLT1_con_mucape_000.txt.gz
CAPE
45 12 3 0 0 0 0 1 0 0 0 1 13 14 0 0 0 0 0 0 0 5 1 0 1 0 1 0 0 0 0 0 0
48 9 0 0 0 2 1 0 1 4 1 7 7 17 0 0 0 0 0 0 0 5 1 0 0 0 0 0 0 0 0 0 0
24 4 0 0 2 9 13 10 3 0 5 9 8 18 8 0 0 0 0 0 0 11 5 0 0 0 0 0 0 0 0 0 0
6 12 12 0 6 8 25 30 27 9 5 4 9 19 27 0 0 0 0 0 0 9 7 3 0 0 0 0 0 0 0 0 0
10 23 22 2 10 11 16 23 23 11 2 2 6 19 18 6 0 0 0 0 0 3 5 6 2 0 0 0 0 0 0 0 0
0 0 0 7 2 12 12 15 25 25 6 0 0 11 0 0 0 0 0 0 0 2 13 13 8 1 1 1 0 0 0 0 0
0 0 0 17 26 31 11 17 32 23 0 0 0 0 0 0 0 0 0 0 0 1 7 11 15 10 3 1 2 1 0 0 0
0 0 0 0 0 0 0 0 0 0 0 0 0 0 0 0 0 0 0 0 0 0 2 9 63 25 15 4 2 4 1 0 0
0 0 0 0 0 0 0 0 0 0 0 0 0 0 0 0 0 0 0 0 0 0 0 4 30 161 83 29 11 19 18 5 8
0 0 0 0 0 0 0 0 0 0 0 0 0 0 0 0 0 0 0 0 0 0 0 0 5 25 230 226 173 132 108 106 89
0 0 0 0 0 0 0 0 0 0 0 0 0 0 0 0 0 0 0 0 0 0 0 0 0 1 27 319 241 243 195 187 188
0 0 0 0 0 0 0 0 0 0 0 0 0 0 0 0 0 0 0 0 0 0 0 0 0 0 0 33 312 291 234 208 236
0 0 0 0 0 0 0 0 0 0 0 0 0 0 0 0 0 0 0 0 0 0 0 0 0 0 0 3 129 287 304 298 268
0 0 0 2 3 2 4 4 10 9 5 4 2 1 0 0 0 0 0 0 0 0 0 0 0 0 0 0 16 174 242 241 295
3 4 4 7 2 0 0 0 2 6 1 11 5 1 1 0 0 0 0 0 0 0 0 0 0 0 0 0 0 171 250 194 191
0 0 0 0 0 0 0 0 0 0 0 8 4 8 2 0 0 0 0 0 0 0 0 0 0 0 0 0 0 0 129 271 303
0 0 0 0 0 0 0 0 0 1 3 13 28 5 4 1 1 2 0 0 0 0 0 0 0 0 0 0 0 15 2 20 99
0 0 0 0 0 0 0 0 12 24 5 17 79 49 26 26 21 13 11 1 7 10 2 0 0 0 0 10 6 21 58 79 83
0 0 0 0 0 0 0 0 0 1 6 2 23 49 44 58 36 36 48 58 18 12 10 7 9 37 43 40 42 95 148 123 119
0 0 0 0 0 0 0 0 0 0 0 0 4 1 0 5 47 10 8 0 14 82 26 23 22 59 86 128 147 180 227 222 219

GFSFLT1_con_mucape_003.txt.gz
CAPE
15 10 0 0 0 0 0 0 14 5 4 18 16 25 13 0 0 0 0 4 0 1 10 12 18 12 10 11 0 0 0 0 0
30 19 0 0 0 1 7 5 3 2 10 15 23 18 26 5 0 0 0 0 20 10 11 8 3 10 4 3 2 0 0 0 0
47 27 6 2 0 9 11 18 20 11 6 8 13 19 18 5 0 0 0 0 12 1 12 10 4 3 2 0 0 0 0 0 0
26 19 22 21 21 20 8 50 45 35 26 14 10 23 32 20 14 0 0 0 4 16 14 24 20 11 4 1 0 0 0 0 0
16 28 32 40 31 22 17 23 45 35 26 15 28 32 34 11 19 6 0 0 0 17 22 26 24 17 9 5 1 0 2 0 0
0 0 3 18 17 8 13 20 29 35 34 11 10 12 0 1 5 7 0 0 0 0 10 20 31 33 23 10 8 4 1 2 1
0 0 0 0 0 12 2 1 10 15 5 0 0 0 0 0 0 0 0 3 12 2 0 4 18 29 58 26 11 10 8 1 1
0 0 0 0 0 0 0 0 0 0 0 0 0 0 0 0 0 0 0 0 0 6 5 2 6 13 35 105 26 20 22 14 10
0 0 0 0 0 0 0 0 0 0 0 0 0 0 0 0 0 0 0 0 0 0 0 0 0 2 15 40 171 148 86 96 90
0 0 0 0 0 0 0 0 0 0 0 0 0 0 0 0 0 0 0 0 0 0 0 0 0 0 0 24 187 243 216 138 115
0 0 0 0 0 0 0 0 0 0 0 0 0 0 0 0 0 0 0 0 0 0 0 0 0 0 0 4 52 216 407 270 207
0 0 0 0 0 0 0 0 0 0 0 0 0 0 0 0 0 0 0 0 0 0 0 0 0 0 0 3 20 80 209 409 389
0 0 0 1 0 4 8 0 0 0 0 1 1 0 0 0 0 0 0 0 0 0 0 0 0 0 0 2 37 153 124 133 347
0 8 7 1 0 0 0 0 0 0 0 0 0 0 0 0 0 0 0 0 0 0 0 0 0 0 10 14 35 239 239 211 247
0 0 0 0 0 0 1 0 0 0 0 1 1 0 0 0 0 0 0 0 0 0 0 0 0 0 0 0 12 252 415 365 334
0 0 0 0 0 0 0 0 1 0 12 9 0 4 2 0 0 0 2 0 0 1 0 0 0 0 0 0 0 2 100 434 532
0 0 0 0 0 0 0 0 0 0 0 22 21 24 3 12 26 11 6 0 23 24 22 25 23 22 14 11 1 2 2 69 204
0 0 0 0 0 0 0 0 0 0 0 0 1 8 0 0 0 18 55 43 17 0 5 12 40 16 31 29 32 48 57 65 110
0 0 0 0 0 0 0 0 0 0 0 0 0 0 7 0 0 0 4 4 24 2 4 0 0 1 9 3 30 50 114 127 101
0 0 0 0 0 0 0 0 0 0 0 0 0 0 1 0 29 0 0 16 9 11 10 64 97 79 149 137 74 48 98 121 295

GFSFLT1_con_mucape_006.txt.gz
CAPE
21 11 2 0 0 0 0 1 0 1 8 3 29 12 30 11 9 0 2 7 10 0 4 12 5 17 30 17 15 4 0 0 0
27 21 10 3 0 1 9 13 6 2 0 1 5 18 32 15 23 2 0 2 10 20 23 12 14 12 17 20 11 10 0 0 0
105 39 18 12 13 8 8 25 26 27 22 19 13 14 33 4 17 9 1 0 0 18 32 13 23 15 10 9 8 5 3 0 0
29 36 21 25 22 19 14 24 34 44 47 29 25 34 35 14 7 9 7 1 0 3 17 24 23 31 22 15 15 9 8 2 0
0 4 14 10 25 10 0 0 8 8 21 13 7 4 9 0 0 0 1 0 0 0 2 19 27 26 25 22 18 11 4 10 3
0 0 0 0 0 0 0 0 0 11 6 8 0 0 0 0 0 0 0 0 6 6 3 4 16 26 30 69 29 17 15 7 6
0 0 0 0 0 0 0 0 0 1 1 1 0 1 0 0 0 0 0 0 0 0 3 2 2 8 18 36 47 32 20 21 12
0 0 0 0 0 0 0 1 0 0 0 0 1 1 0 0 0 0 0 0 0 0 0 1 5 2 3 11 23 59 63 46 41
0 0 1 0 0 2 2 3 2 2 2 2 0 1 1 0 0 0 0 0 0 0 0 0 0 3 2 4 18 40 135 132 65
1 2 2 4 3 3 4 5 5 5 3 1 1 0 1 0 1 0 0 0 0 0 0 0 0 0 0 2 14 24 160 248 216
2 1 3 2 5 3 2 2 1 2 3 2 6 4 3 2 1 1 0 0 0 0 0 0 0 0 0 0 18 22 117 240 400
0 1 1 7 6 4 7 7 8 10 12 13 10 10 8 4 3 3 3 1 0 0 0 0 0 0 11 8 22 94 116 119 235
0 4 9 6 5 7 7 7 6 8 12 11 6 12 9 6 4 3 1 1 0 0 0 0 0 5 28 47 65 208 138 143 146
2 1 0 0 0 0 0 1 1 2 4 7 4 2 3 3 5 9 3 1 0 0 0 0 0 0 0 23 118 300 310 243 256
0 0 0 0 0 0 0 0 0 0 0 0 0 1 0 2 10 22 28 38 19 6 3 0 0 0 1 8 12 60 323 396 302
0 0 0 0 0 0 0 0 0 0 0 0 0 0 0 0 0 17 0 0 21 48 86 111 48 13 10 13 25 34 68 147 290
0 0 0 0 0 0 0 0 0 0 0 0 0 0 0 0 0 0 0 0 0 23 84 82 88 103 142 99 74 77 49 115 186
0 0 0 0 0 0 0 0 0 0 0 0 0 0 0 0 0 0 0 0 0 1 6 3 6 38 98 115 86 48 88 118 226
0 0 0 0 0 0 0 0 0 0 0 0 0 0 0 0 0 0 0 0 0 0 0 0 0 0 4 109 98 135 191 270 327
0 0 0 0 0 0 0 0 0 0 0 0 0 0 0 0 0 0 0 0 0 0 0 0 7 2 17 161 149 91 89 142 223

GFSFLT1_con_mucape_009.txt.gz
CAPE
27 16 5 2 3 0 1 1 0 0 0 0 0 5 26 19 5 4 0 0 0 5 0 1 9 0 9 28 20 16 8 2 0
119 23 18 9 5 0 1 10 12 8 6 4 0 1 22 2 0 0 6 0 0 3 7 14 12 15 8 8 16 15 17 10 0
169 97 15 15 11 10 1 6 7 24 27 18 7 2 3 0 0 0 1 3 0 0 4 8 19 15 20 8 7 6 4 6 1
69 93 5 10 11 10 0 0 0 0 1 9 1 3 0 0 0 0 0 1 0 0 0 4 16 21 29 31 11 9 7 5 6
0 0 1 0 0 0 0 0 0 0 0 0 0 0 0 0 0 0 0 0 0 0 0 0 1 10 26 36 39 15 11 6 6
0 0 0 0 0 0 0 0 0 0 0 0 0 0 0 0 0 0 0 0 0 0 2 2 2 2 9 39 44 46 15 12 13
0 0 0 0 0 0 0 0 0 0 0 0 1 0 0 0 0 0 0 0 0 0 0 0 2 4 4 8 25 28 40 36 35
0 0 0 0 0 0 2 3 2 2 2 1 0 0 0 0 0 0 0 0 0 0 0 1 0 0 5 5 3 25 33 140 145
0 0 2 1 2 4 6 9 7 12 6 9 5 4 6 3 2 0 0 0 0 0 0 3 3 1 1 7 11 23 62 121 176
13 12 10 10 13 14 29 35 22 29 27 24 20 20 20 21 24 20 2 4 5 0 0 1 14 16 5 0 13 69 81 109 158
36 41 42 47 49 41 71 14 38 32 26 16 18 23 26 21 22 21 21 8 10 8 0 0 7 55 80 55 90 39 66 94 116
39 48 37 159 53 46 41 19 15 15 14 8 7 4 1 1 0 4 11 20 18 26 33 18 0 3 77 146 165 227 139 102 135
21 28 20 0 2 0 0 0 0 0 0 0 0 0 0 0 0 0 4 28 21 23 56 62 44 22 21 40 145 265 249 237 204
0 0 0 0 0 0 0 0 0 0 0 0 0 0 0 0 0 0 8 34 61 62 56 37 54 74 42 38 70 87 255 303 278
0 0 0 0 0 0 0 0 0 0 0 0 0 0 0 0 0 10 0 0 3 20 0 39 94 83 102 141 153 171 155 185 259
0 0 0 0 0 0 0 0 0 0 0 0 0 0 0 0 0 0 0 0 0 0 0 0 19 49 114 179 170 157 208 231 200
0 0 0 0 0 0 0 0 0 0 0 0 0 0 0 0 0 0 0 0 0 0 0 0 0 0 0 0 7 203 236 214 172
0 0 0 0 0 0 0 0 0 0 0 0 0 0 0 0 0 0 0 0 0 0 0 0 0 0 0 0 0 39 125 49 127
0 0 0 0 0 0 0 0 0 0 0 0 0 0 0 0 0 0 0 0 0 0 0 0 0 0 0 1 0 111 48 17 14
0 0 0 0 0 0 0 0 0 0 0 0 0 0 0 0 0 0 0 0 0 0 0 0 0 0 2 19 0 33 4 2 7

GFSFLT1_con_mucape_012.txt.gz
CAPE
67 23 14 0 0 0 0 0 0 0 0 0 0 0 0 0 0 0 0 0 0 0 6 0 0 0 0 1 17 18 6 5 1
141 39 21 1 0 0 0 0 0 0 2 0 0 0 0 0 0 0 0 0 0 0 2 6 5 5 7 5 4 10 15 9 8
186 116 33 0 0 0 0 0 0 0 3 14 12 16 1 0 0 0 0 0 0 0 0 0 1 3 4 9 8 4 5 8 9
123 195 30 0 0 0 0 0 0 0 0 0 8 11 0 0 0 0 0 0 0 0 0 0 0 1 7 5 16 13 4 6 7
51 89 81 6 0 0 0 0 0 0 0 0 0 0 0 0 0 0 0 0 0 0 0 0 0 0 1 14 31 24 24 12 11
0 0 13 0 0 0 0 0 0 0 0 0 0 0 0 0 0 0 0 0 0 0 0 1 3 3 4 7 24 62 25 29 34
0 0 0 0 0 0 0 0 12 0 0 0 0 0 0 0 0 0 0 0 0 0 0 0 2 8 5 7 10 16 85 97 187
0 0 0 0 0 0 0 0 0 0 0 0 0 0 0 0 0 0 3 68 6 0 27 36 0 4 12 9 10 18 70 162 202
0 0 0 0 0 1 3 11 10 15 20 22 24 18 15 11 10 13 12 59 114 41 75 98 62 26 25 47 32 84 118 116 132
32 25 20 32 22 17 27 12 16 24 9 13 8 12 10 12 14 11 8 31 164 262 99 91 95 95 56 100 141 186 127 149 174
67 49 126 15 42 36 34 7 6 7 5 1 0 0 0 0 0 0 0 0 64 248 164 122 128 154 150 105 147 197 236 216 195
53 107 40 41 1 0 0 0 0 0 0 0 0 0 0 0 0 0 0 0 5 82 197 243 141 150 128 151 137 182 202 195 268
7 10 0 0 0 0 0 0 0 0 0 0 0 0 0 0 0 0 0 0 4 3 12 123 156 163 172 144 130 163 225 225 224
0 0 0 0 0 0 0 0 0 0 0 0 0 0 0 0 0 0 0 0 1 0 33 19 8 36 67 35 94 120 186 211 239
0 0 0 0 0 0 0 0 0 0 0 0 0 0 0 0 0 0 0 0 0 0 0 0 0 0 0 8 10 7 24 89 244
0 0 0 0 0 0 0 0 0 0 0 0 0 0 0 0 0 0 0 0 0 0 0 0 0 0 0 0 0 0 0 0 26
0 0 0 0 0 0 0 0 0 0 0 0 0 0 0 0 0 0 0 0 0 0 0 0 0 0 0 0 0 0 0 0 16
0 0 0 0 0 0 0 0 0 0 0 0 0 0 0 0 0 0 0 0 0 0 0 0 0 0 0 0 0 0 35 20 39
0 0 0 0 0 0 0 0 0 0 0 0 0 0 0 0 0 0 0 0 0 0 0 0 0 0 0 0 0 25 0 4 3
0 0 0 0 0 0 0 0 0 0 0 0 0 0 0 0 0 0 0 0 0 0 0 0 0 0 0 0 0 0 0 0 0

GFSFLT1_con_mucape_015.txt.gz
CAPE
140 34 7 0 0 0 0 0 0 0 0 0 0 0 0 0 0 0 0 0 0 0 6 0 0 0 0 0 10 27 28 18 9
104 63 8 0 0 0 0 0 0 0 4 16 8 3 0 0 0 0 0 0 0 0 0 7 9 8 5 5 4 2 15 21 11
142 75 9 2 0 0 0 0 0 0 1 5 10 14 6 0 0 0 0 0 0 6 6 1 2 9 10 17 11 15 10 8 11
79 256 75 6 2 6 13 1 0 0 0 0 1 0 0 0 0 0 0 0 0 0 11 6 4 3 5 14 21 19 26 17 11
130 254 173 34 20 17 2 0 0 0 0 0 0 0 0 0 0 0 0 0 0 0 2 4 4 5 4 6 8 23 22 18 34
0 8 3 79 1 0 0 1 10 85 40 35 14 0 0 0 0 0 0 0 0 0 12 23 0 0 1 5 10 14 19 48 63
0 0 3 7 16 34 16 54 245 107 0 0 1 5 2 2 0 1 1 4 16 41 103 65 50 1 10 12 17 21 19 24 143
0 0 0 0 0 0 0 1 6 14 15 13 24 14 12 17 17 23 23 72 62 131 305 188 158 135 84 40 51 78 41 73 119
15 22 11 12 22 22 24 24 6 9 11 15 18 6 6 0 14 17 22 86 74 82 306 164 196 176 122 108 186 331 172 187 222
70 88 92 99 48 15 28 7 1 0 0 0 0 0 0 0 0 0 0 0 38 46 41 126 242 255 170 144 155 225 196 128 206
127 57 95 105 70 7 1 0 0 0 0 0 0 0 0 0 0 0 0 0 0 0 0 18 58 74 82 102 113 167 231 225 212
187 150 100 14 0 0 0 0 0 0 0 0 0 0 0 0 0 0 0 0 0 0 0 3 10 3 0 24 63 137 148 141 140
11 1 0 0 0 0 0 0 0 0 0 0 0 0 0 0 0 0 0 0 0 0 0 0 4 2 4 5 0 0 0 67 0
0 0 0 0 0 0 0 0 0 0 0 0 0 0 0 0 0 0 0 0 0 0 0 0 0 0 0 0 0 0 0 0 0
0 0 0 0 0 0 0 0 0 0 0 0 0 0 0 0 0 0 0 0 0 0 0 0 0 0 0 0 0 0 0 0 0
0 0 0 0 0 0 0 0 0 0 0 0 0 0 0 0 0 0 0 0 0 0 0 0 0 0 0 0 0 0 0 0 0
0 0 0 0 0 0 0 0 0 0 0 0 0 0 0 0 0 0 0 0 0 0 0 0 0 0 0 0 0 0 0 10 9
0 0 0 0 0 0 0 0 0 0 0 0 0 0 0 0 0 0 0 0 0 0 0 0 0 0 0 0 0 0 0 0 5
0 0 0 0 0 0 0 0 0 0 0 0 0 0 0 0 0 0 0 0 0 0 0 0 0 0 0 0 0 0 0 0 8
0 0 0 0 0 0 0 0 0 0 0 0 0 0 0 0 0 0 0 0 0 0 0 0 0 0 0 0 0 0 0 0 18

GFSFLT1_con_mucape_018.txt.gz
CAPE
22 12 0 0 0 0 0 0 0 0 0 0 0 0 0 0 0 0 0 0 0 0 6 26 16 10 8 10 12 38 90 60 30
136 92 0 0 0 0 0 0 0 0 2 8 14 16 14 0 0 0 0 0 0 0 10 10 30 20 20 20 16 24 26 32 24
134 60 4 2 0 0 0 0 2 0 0 0 2 18 24 0 0 0 0 0 0 0 12 22 8 6 12 24 24 34 24 28 34
122 148 58 24 2 4 16 26 6 0 6 0 0 44 18 0 0 0 0 0 0 0 0 8 18 12 8 6 12 22 32 22 42
78 418 276 68 44 40 38 0 0 14 32 38 150 92 6 0 0 0 0 0 0 0 0 0 6 12 8 8 4 4 12 22 30
0 66 52 162 90 44 16 32 72 228 156 172 138 32 2 2 0 0 4 8 34 26 22 100 78 28 90 104 24 26 18 16 20
0 0 18 110 164 134 104 172 344 194 14 10 18 16 10 12 14 14 16 28 72 102 384 262 196 156 124 132 26 66 74 88 80
0 0 0 8 16 28 36 14 18 20 14 10 4 0 0 0 0 0 16 18 14 10 12 106 136 116 120 102 94 136 112 140 150
8 18 28 60 80 80 26 76 6 2 2 0 0 0 0 0 0 0 0 0 0 0 0 6 50 176 144 102 108 156 144 158 146
46 66 66 68 98 70 18 12 2 0 0 0 0 0 0 0 0 0 0 0 0 0 0 0 0 0 2 12 44 72 80 94 114
92 48 40 118 22 6 2 0 0 0 0 0 0 0 0 0 0 0 0 0 0 0 0 0 0 0 2 6 6 0 2 0 0
68 102 162 4 0 0 0 0 0 0 0 0 0 0 0 0 0 0 0 0 0 0 0 0 0 0 0 0 2 0 0 0 0
80 2 0 0 0 0 0 0 0 0 0 0 0 0 0 0 0 0 0 0 0 0 0 0 0 0 0 0 0 0 0 0 0
0 0 0 0 0 0 0 0 0 0 0 0 0 0 0 0 0 0 0 0 0 0 0 0 0 0 0 0 0 0 0 0 0
0 0 0 0 0 0 0 0 0 0 0 0 0 0 0 0 0 0 0 0 0 0 0 0 0 0 0 0 0 0 0 0 0
0 0 0 0 0 0 0 0 0 0 0 0 0 0 0 0 0 0 0 0 0 0 0 0 0 0 0 0 0 0 0 0 0
0 0 0 0 0 0 0 0 0 0 0 0 0 0 0 0 0 0 0 0 0 0 0 0 0 0 0 0 0 0 0 0 0
0 0 0 0 0 0 0 0 0 0 0 0 0 0 0 0 0 0 0 0 0 0 0 0 0 0 0 0 0 0 0 0 0
0 0 0 0 0 0 0 0 0 0 0 0 0 0 0 0 0 0 0 0 0 0 0 0 0 0 0 0 0 0 0 0 0
0 0 0 0 0 0 0 0 0 0 0 0 0 0 0 0 0 0 0 0 0 0 0 0 0 0 0 0 0 0 0 0 0

GFSFLT1_con_mucape_021.txt.gz
CAPE
10 11 2 0 0 0 0 0 0 0 0 0 0 0 0 0 0 0 0 0 0 0 4 14 29 22 33 21 21 28 57 120 98
27 58 8 0 0 0 0 0 0 0 0 1 5 13 75 0 0 0 0 0 0 0 4 27 14 40 39 27 18 18 18 27 29
100 53 5 0 0 0 0 0 1 1 3 0 0 41 43 0 0 0 0 0 0 0 0 6 28 20 7 3 8 6 26 32 41
136 75 24 15 5 0 3 13 8 1 14 34 52 94 75 7 0 0 0 0 2 7 2 0 5 23 28 20 7 1 6 10 38
21 255 203 93 37 36 44 36 15 36 81 109 253 191 115 6 0 0 0 2 28 108 79 78 53 26 77 111 29 26 25 17 14
0 83 61 204 113 103 78 95 161 259 195 184 132 60 11 10 8 4 5 17 50 175 241 197 121 124 228 178 181 49 91 92 90
0 0 12 64 129 184 79 110 110 29 14 6 8 3 1 0 0 0 0 3 12 15 0 6 10 62 88 107 124 128 142 126 131
0 0 0 0 8 22 38 29 17 9 2 0 0 0 0 0 0 0 0 0 0 0 0 0 3 43 88 84 103 118 123 141 157
0 0 3 29 25 115 33 33 29 3 0 0 0 0 0 0 0 0 0 0 0 0 0 0 0 0 2 8 41 17 14 24 37
15 14 76 25 43 38 17 2 0 0 0 0 0 0 0 0 0 0 0 0 0 0 0 0 0 0 0 0 0 5 3 0 0
77 86 27 9 2 2 1 0 0 0 0 0 0 0 0 0 0 0 0 0 0 0 0 0 0 0 0 0 0 0 2 0 0
32 2 7 6 0 0 0 0 0 0 0 0 0 0 0 0 0 0 0 0 0 0 0 0 0 0 0 0 0 0 0 0 0
22 16 0 0 0 0 0 0 0 0 0 0 0 0 0 0 0 0 0 0 0 0 0 0 0 0 0 0 0 0 0 0 0
2 3 0 0 0 0 0 0 0 0 0 0 0 0 0 0 0 0 0 0 0 0 0 0 0 0 0 0 0 0 0 0 0
0 0 0 0 0 0 0 0 0 0 0 0 0 0 0 0 0 0 0 0 0 0 0 0 0 0 0 0 0 0 0 0 0
0 0 0 0 0 0 0 0 0 0 0 0 0 0 0 0 0 0 0 0 0 0 0 0 0 0 0 0 0 0 0 0 0
0 0 0 0 0 0 0 0 0 0 0 0 0 0 0 0 0 0 0 0 0 0 0 0 0 0 0 0 0 0 0 0 0
0 0 0 0 0 0 0 0 0 0 0 0 0 0 0 0 0 0 0 0 0 0 0 0 0 0 0 0 0 0 0 0 0
0 0 0 0 0 0 0 0 0 0 0 0 0 0 0 0 0 0 0 0 0 0 0 0 0 0 0 0 0 0 0 0 0
0 0 0 0 0 0 0 0 0 0 0 0 0 0 0 0 0 0 0 0 0 0 0 0 0 0 0 0 0 0 0 0 0

GFSFLT1_con_mucape_024.txt.gz
CAPE
23 1 1 0 0 0 0 0 0 0 0 0 0 1 0 0 0 0 0 0 0 0 0 0 21 24 18 23 11 1 3 53 102
32 20 5 0 0 0 0 0 0 0 0 0 2 6 63 9 0 0 0 0 0 0 0 2 20 17 30 62 11 10 9 5 5
74 32 7 0 0 0 0 0 2 3 2 5 6 26 54 4 0 0 0 0 1 14 1 0 5 22 14 2 1 0 4 12 34
105 63 22 2 0 1 2 12 26 9 25 69 108 160 110 29 0 0 0 0 28 148 144 67 26 24 24 93 28 19 14 12 6
0 171 128 73 39 29 46 50 53 87 110 136 224 138 67 10 5 1 0 6 145 275 345 298 268 287 230 398 359 126 76 49 26
0 42 72 125 97 81 80 87 141 91 27 16 10 8 0 0 0 0 0 5 47 114 126 24 43 120 253 352 235 193 165 100 153
0 0 0 6 10 15 2 12 11 12 1 2 0 0 0 0 0 0 0 0 0 0 0 0 7 49 145 149 143 125 154 147 188
0 0 0 0 0 6 10 22 8 5 0 0 0 0 0 0 0 0 0 0 0 0 0 0 0 12 1 19 12 5 6 14 13
0 0 0 5 9 38 27 6 2 0 0 0 0 0 0 0 0 0 0 0 0 0 0 0 2 0 0 0 0 0 0 0 0
0 3 7 14 8 7 1 1 0 0 0 0 0 0 0 0 0 0 0 0 0 0 0 0 0 0 0 0 0 0 0 0 0
43 27 27 4 6 0 0 0 0 0 0 0 0 0 0 0 0 0 0 0 0 0 0 0 0 0 0 0 0 0 0 0 0
20 6 7 8 0 0 0 0 0 0 0 0 0 0 0 0 0 0 0 0 0 0 0 0 0 0 0 0 0 0 0 0 0
52 7 3 1 0 0 0 0 0 0 0 0 0 0 0 0 0 0 0 0 0 0 0 0 0 0 0 0 0 0 0 0 0
2 2 0 0 0 0 0 0 0 0 0 0 0 0 0 0 0 0 0 0 0 0 0 0 0 0 0 0 0 0 0 0 0
1 0 0 0 0 0 0 0 0 0 0 0 0 0 0 0 0 0 0 0 0 0 0 0 0 0 0 0 0 0 0 0 0
0 0 0 0 0 0 0 0 0 0 0 0 0 0 0 0 0 0 0 0 0 0 0 0 0 0 0 0 0 0 0 0 0
0 0 0 0 0 0 0 0 0 0 0 0 0 0 0 0 0 0 0 0 0 0 0 0 0 0 0 0 0 0 0 0 0
0 0 0 0 0 0 0 0 0 0 0 0 0 0 0 0 0 0 0 0 0 0 0 0 0 0 0 0 0 0 0 0 0
0 0 0 0 0 0 0 0 0 0 0 0 0 0 0 0 0 0 0 0 0 0 0 0 0 0 0 0 0 0 0 0 0
0 0 0 0 0 0 0 0 0 0 0 0 0 0 0 0 0 0 0 0 0 0 0 0 0 0 0 0 0 0 0 0 0

GFSFLT1_con_mucape_027.txt.gz
CAPE
7 0 0 0 0 0 0 0 0 0 0 0 3 9 3 0 0 0 0 0 0 0 0 0 0 52 20 8 10 0 0 5 96
33 16 1 0 0 0 0 0 0 0 0 0 0 0 20 0 0 0 0 0 1 24 7 0 3 13 4 15 94 2 0 0 0
40 38 15 0 0 0 0 1 3 5 0 14 28 39 24 0 0 0 0 0 8 93 87 51 5 15 72 12 0 0 0 0 0
140 89 23 0 0 0 0 23 37 34 58 92 103 126 55 50 29 2 0 0 79 202 230 288 247 168 127 145 248 206 83 37 16
35 84 76 48 48 36 59 75 116 112 85 55 25 14 6 11 3 0 0 9 121 214 238 177 117 249 354 424 325 269 197 197 190
0 40 49 41 42 50 48 25 13 4 6 2 2 0 0 0 0 0 0 0 3 5 0 0 4 63 130 239 210 197 256 216 263
0 0 0 0 0 0 3 9 2 2 0 0 0 0 0 0 0 0 0 0 0 0 0 0 0 8 36 47 29 32 73 69 54
0 0 0 0 0 3 5 13 2 1 0 0 0 0 0 0 0 0 0 0 0 0 0 1 0 0 0 0 0 0 0 0 0
0 0 0 3 1 2 9 1 0 0 0 0 0 0 0 0 0 0 0 0 0 0 0 0 0 0 0 0 0 0 0 0 0
0 1 3 5 3 2 1 0 0 0 0 0 0 0 0 0 0 0 0 0 0 0 0 0 0 0 0 0 0 0 0 0 0
4 4 7 3 2 3 0 0 0 0 0 0 0 0 0 0 0 0 0 0 0 0 0 0 0 0 0 0 0 0 0 0 0
3 4 2 7 4 0 0 0 0 0 0 0 0 0 0 0 0 0 0 0 0 0 0 0 0 0 0 0 0 0 0 0 0
18 5 1 2 0 0 0 0 0 0 0 0 0 0 0 0 0 0 0 0 0 0 0 0 0 0 0 0 0 0 0 0 0
18 1 0 0 0 0 0 0 0 0 0 0 0 0 0 0 0 0 0 0 0 0 0 0 0 0 0 0 0 0 0 0 0
23 0 0 0 0 0 0 0 0 0 0 0 0 0 0 0 0 0 0 0 0 0 0 0 0 0 0 0 0 0 0 0 0
18 0 0 0 0 0 0 0 0 0 0 0 0 0 0 0 0 0 0 0 0 0 0 0 0 0 0 0 0 0 0 0 0
6 0 0 0 0 0 0 0 0 0 0 0 0 0 0 0 0 0 0 0 0 0 0 0 0 0 0 0 0 0 0 0 0
12 0 0 0 0 0 0 0 0 0 0 0 0 0 0 0 0 0 0 0 0 0 0 0 0 0 0 0 0 0 0 0 0
0 0 0 0 0 0 0 0 0 0 0 0 0 0 0 0 0 0 0 0 0 0 0 0 0 0 0 0 0 0 0 0 0
0 0 0 0 0 0 0 0 0 0 0 0 0 0 0 0 0 0 0 0 0 0 0 0 0 0 0 0 0 0 0 0 0

GFSFLT1_con_mucape_030.txt.gz
CAPE
0 0 0 0 0 0 0 0 0 0 0 0 0 17 2 0 18 7 5 0 0 1 0 0 0 7 120 75 21 17 6 4 51
21 13 0 0 0 0 0 0 0 0 0 1 0 0 0 0 10 7 3 3 0 22 22 19 0 17 31 20 46 112 9 0 0
39 27 5 0 0 0 0 3 4 8 0 20 43 43 36 31 57 52 55 3 13 130 170 131 152 60 75 144 137 32 26 9 8
95 71 18 0 0 0 0 21 47 59 79 87 81 56 41 52 63 69 53 11 137 269 264 289 274 323 335 252 216 341 368 259 199
183 96 59 31 27 30 68 56 49 37 17 0 0 0 0 14 3 0 0 0 29 80 21 37 71 124 175 225 236 253 370 370 341
1 37 53 11 17 25 0 11 0 0 0 0 0 0 0 0 0 0 0 0 0 0 0 0 1 54 123 104 126 189 225 195 196
0 0 0 0 0 0 0 5 0 0 0 0 0 0 0 0 0 0 0 0 0 0 0 7 0 0 0 0 1 1 1 0 0
0 0 0 1 0 12 0 7 0 0 0 0 0 0 0 0 0 0 0 0 0 0 5 0 0 0 0 0 0 0 0 0 0
0 3 30 1 0 0 2 0 0 0 0 0 0 0 0 0 0 0 0 0 0 0 1 0 0 0 0 0 0 0 0 0 0
10 3 0 4 1 1 0 0 0 0 0 0 0 0 0 0 0 0 0 0 0 0 0 0 0 0 0 0 0 0 0 0 0
0 2 1 4 1 2 0 0 0 0 0 0 0 0 0 0 0 0 0 0 0 0 0 0 0 0 0 0 0 0 0 0 0
1 5 2 1 4 1 0 0 0 0 0 0 0 0 0 0 0 0 0 0 0 0 0 0 0 0 0 0 0 0 0 0 0
4 6 2 0 0 0 0 0 0 0 0 0 0 0 0 0 0 0 0 0 0 0 0 0 0 0 0 0 0 0 0 0 0
57 8 4 0 0 0 0 0 0 0 0 0 0 0 0 0 0 0 0 0 0 0 0 0 0 0 0 0 0 0 0 0 0
100 101 5 0 0 0 0 0 0 0 0 0 0 0 0 0 0 0 0 0 0 0 0 0 0 0 0 0 0 0 0 0 0
184 86 0 0 0 0 0 0 0 0 0 0 0 0 0 0 0 0 0 0 0 0 0 0 0 0 0 0 0 0 0 0 0
110 49 0 0 0 0 0 0 0 0 0 0 0 0 0 0 0 0 0 0 0 0 0 0 0 0 0 0 0 0 0 0 0
29 7 15 0 0 0 0 0 0 0 0 0 0 0 0 0 0 0 0 0 0 0 0 0 0 0 0 0 0 0 0 0 0
14 14 0 0 0 0 0 0 0 0 0 0 0 0 0 0 0 0 0 0 0 0 0 0 0 0 0 0 0 0 0 0 0
0 1 0 0 0 0 0 0 0 0 0 0 0 0 0 0 0 0 0 0 0 0 0 0 0 0 0 0 0 0 0 0 0

GFSFLT1_con_mucape_033.txt.gz
CAPE
0 0 0 0 0 0 0 0 0 0 0 0 0 0 0 0 25 17 15 9 0 1 1 0 0 0 17 123 97 49 49 21 27
1 0 0 0 0 0 0 0 0 0 0 1 0 0 0 0 23 22 21 36 1 58 68 48 60 15 17 38 51 41 108 126 1
21 18 0 0 0 0 0 8 12 3 5 28 41 38 30 0 24 18 25 26 45 162 202 221 253 260 199 126 138 221 107 78 69
86 55 7 0 0 0 11 40 65 65 75 39 5 3 18 0 20 17 16 11 48 121 84 99 112 151 174 250 263 290 375 483 361
263 139 38 1 20 36 33 24 11 11 0 0 0 0 0 15 13 13 0 0 2 2 20 0 16 135 121 132 199 220 240 258 259
31 39 112 42 13 5 0 0 0 0 0 0 0 0 0 0 0 0 0 0 0 1 0 25 17 3 1 2 1 1 0 0 0
14 23 5 0 0 0 0 0 0 0 0 0 0 0 0 0 0 0 0 0 0 0 6 0 0 0 0 1 0 0 0 0 0
0 0 0 0 0 5 0 0 0 0 0 0 0 0 0 0 0 0 0 0 0 0 3 0 0 0 0 0 0 0 0 0 0
0 2 21 34 8 0 0 0 0 0 0 0 0 0 0 0 0 0 0 0 0 0 0 0 0 0 0 0 0 0 0 0 0
2 21 5 0 0 0 0 0 0 0 0 0 0 0 0 0 0 0 0 0 0 0 0 0 0 0 0 0 0 0 0 0 0
78 1 0 0 0 0 0 0 0 0 0 0 0 0 0 0 0 0 0 0 0 0 0 0 0 0 0 0 0 0 0 0 0
7 0 0 0 0 0 0 0 0 0 0 0 0 0 0 0 0 0 0 0 0 0 0 0 0 0 0 0 0 0 0 0 0
1 0 1 0 0 0 0 0 0 0 0 0 0 0 0 0 0 0 0 0 0 0 0 0 0 0 0 0 0 0 0 0 0
11 10 1 0 0 0 0 0 0 0 0 0 0 0 0 0 0 0 0 0 0 0 0 0 0 0 0 0 0 0 0 0 0
23 47 28 20 0 0 0 0 0 0 0 0 0 0 0 0 0 0 0 0 0 0 0 0 0 0 0 0 0 0 0 0 0
52 90 62 95 2 0 0 0 0 0 0 0 0 0 0 0 0 0 0 0 0 0 0 0 0 0 0 0 0 0 0 0 0
145 169 137 115 24 0 0 0 0 0 0 0 0 0 0 0 0 0 0 0 0 0 0 0 0 0 0 0 0 0 0 0 0
268 150 38 4 0 0 0 0 0 0 0 0 0 0 0 0 0 0 0 0 0 0 0 0 0 0 0 0 0 0 0 0 0
236 173 40 0 2 0 0 0 0 0 0 0 0 0 0 0 0 0 0 0 0 0 0 0 0 0 0 0 0 0 0 0 0
205 81 35 5 0 0 0 0 0 0 0 0 0 0 0 0 0 0 0 0 0 0 0 0 0 0 0 0 0 0 0 0 0

GFSFLT1_con_mucape_036.txt.gz
CAPE
0 0 0 0 0 0 0 0 0 0 0 0 0 0 0 4 5 7 5 0 4 22 25 6 0 0 0 28 115 57 57 59 14
0 0 0 0 0 0 2 2 1 0 0 0 0 0 6 0 11 11 12 16 48 83 74 86 108 139 59 27 71 141 46 50 89
14 0 0 0 0 0 0 2 0 0 0 13 25 33 21 0 19 25 12 62 98 132 124 130 143 162 215 243 221 184 223 216 105
86 9 0 0 0 0 0 22 28 36 35 2 0 0 0 1 9 2 0 44 28 41 54 34 123 186 177 228 235 238 272 306 325
292 93 33 4 11 30 8 0 3 0 0 0 0 0 0 0 1 0 0 0 0 10 2 69 57 29 17 23 32 14 6 11 21
42 19 82 101 26 0 0 0 0 0 0 0 0 0 0 0 0 0 0 0 0 0 23 4 1 0 0 2 1 1 1 2 0
35 18 25 45 4 1 0 0 0 0 0 0 0 0 0 0 0 0 0 0 0 8 1 0 0 0 0 0 0 0 0 0 0
16 0 0 0 0 0 0 0 0 0 0 0 0 0 0 0 0 0 0 0 0 18 0 0 0 0 0 0 0 0 0 0 0
0 0 0 2 3 0 0 0 0 0 0 0 0 0 0 0 0 0 0 0 0 0 0 0 0 0 0 0 0 0 0 0 0
0 0 5 1 0 0 0 0 0 0 0 0 0 0 0 0 0 0 0 0 0 0 0 0 0 0 0 0 0 0 0 0 0
0 4 11 0 0 0 0 0 0 0 0 0 0 0 0 0 0 0 0 0 0 0 0 0 0 0 0 0 0 0 0 0 0
19 45 0 0 0 0 0 0 0 0 0 0 0 0 0 0 0 0 0 0 0 0 0 0 0 0 0 0 0 0 0 0 0
95 28 0 0 0 0 0 0 0 0 0 0 0 0 0 0 0 0 0 0 0 0 0 0 0 0 0 0 0 0 0 0 0
128 0 0 0 0 0 0 0 0 0 0 0 0 0 0 0 0 0 0 0 0 0 0 0 0 0 0 0 0 0 0 0 0
28 1 0 0 0 0 0 0 0 0 0 0 0 0 0 0 0 0 0 0 0 0 0 0 0 0 0 0 0 0 0 0 0
121 43 3 2 0 0 12 0 0 0 0 0 0 0 0 0 0 0 0 0 0 0 0 0 0 0 0 0 0 0 0 0 0
211 138 92 80 46 79 38 0 0 0 0 0 0 0 0 0 0 0 0 0 0 0 0 0 0 0 0 0 0 0 0 0 0
293 242 190 177 7 6 2 0 0 0 0 0 0 0 0 0 0 0 0 0 0 0 0 0 0 0 0 0 0 0 0 0 0
406 320 252 176 39 7 0 0 0 0 0 0 0 0 0 0 0 0 0 0 0 0 0 0 0 0 0 0 0 0 0 0 0
570 347 294 238 104 2 0 0 0 0 0 0 0 0 0 0 0 0 0 0 0 0 0 0 0 0 0 0 0 0 0 0 0

GFSFLT1_con_mucape_039.txt.gz
CAPE
0 0 0 0 0 0 0 0 0 0 0 0 0 0 0 8 9 6 23 7 27 29 14 5 0 0 0 0 39 41 10 65 32
0 0 0 0 0 2 3 2 0 0 0 0 0 3 18 3 7 21 27 42 85 85 44 124 123 150 155 78 35 100 158 44 51
0 0 0 0 0 3 5 3 0 0 0 5 11 20 16 7 14 6 14 114 77 71 74 102 159 169 195 246 223 221 252 263 263
7 0 0 0 0 1 13 20 16 30 1 0 0 0 0 0 0 0 0 74 35 9 0 125 75 42 66 106 63 41 28 42 90
219 69 10 0 7 10 0 0 7 0 0 0 0 0 0 0 0 0 0 0 14 3 32 15 5 9 8 8 6 7 7 0 0
60 12 59 125 45 8 2 0 0 0 0 0 0 0 0 0 0 0 0 0 1 22 3 0 0 5 9 1 0 1 2 2 2
27 27 81 177 45 36 0 0 0 0 0 0 0 0 0 0 0 0 0 0 3 16 0 0 0 1 2 0 0 0 0 0 0
31 36 21 7 0 0 0 0 0 0 0 0 0 0 0 0 0 0 0 0 3 7 0 0 0 0 0 0 0 0 0 0 0
117 0 0 0 0 0 0 0 0 0 0 0 0 0 0 0 0 0 0 0 1 3 0 0 0 0 0 0 0 0 0 0 0
0 0 0 0 0 0 0 0 0 0 0 0 0 0 0 0 0 0 0 0 0 0 0 0 0 0 0 0 0 0 0 0 0
0 0 0 0 0 0 0 0 0 0 0 0 0 0 0 0 0 0 0 0 0 0 0 0 0 0 0 0 0 0 0 0 0
0 0 2 0 0 0 0 0 0 0 0 0 0 0 0 0 0 0 0 0 0 0 0 0 0 0 0 0 0 0 0 0 0
2 17 23 3 0 0 0 0 0 0 0 0 0 0 0 0 0 0 0 0 0 0 0 0 0 0 0 0 0 0 0 0 0
44 52 107 1 0 0 0 0 0 0 0 0 0 0 0 0 0 0 0 0 0 0 0 0 0 0 0 0 0 0 0 0 0
122 137 117 2 0 0 0 0 0 0 0 0 0 0 0 0 0 0 0 0 0 0 0 0 0 0 0 0 0 0 0 0 0
205 185 69 32 10 0 0 0 0 0 0 0 0 0 0 0 0 0 0 0 0 0 0 0 0 0 0 0 0 0 0 0 0
381 255 124 83 37 18 17 16 0 2 0 0 0 0 0 0 0 0 0 0 0 0 0 0 0 0 0 0 0 0 0 0 0
459 349 197 128 108 117 48 7 0 0 0 0 0 0 0 0 0 0 0 0 0 0 0 0 0 0 0 0 0 0 0 0 0
600 420 264 214 214 227 157 32 0 0 0 0 0 0 0 0 0 0 0 0 0 0 0 0 0 0 0 0 0 0 0 0 0
514 453 256 284 248 209 124 33 0 0 0 0 0 0 0 0 0 0 0 0 0 0 0 0 0 0 0 0 0 0 0 0 0

GFSFLT1_con_mucape_042.txt.gz
CAPE
0 0 2 1 0 0 0 0 0 0 0 0 0 0 10 7 3 6 7 14 36 27 4 3 3 0 0 0 26 46 14 16 74
0 0 0 2 2 1 2 1 0 0 0 0 3 13 20 0 4 13 31 65 111 89 110 116 136 147 152 93 16 67 138 111 32
0 0 0 3 7 7 6 1 0 0 0 13 9 7 2 0 3 7 27 121 79 71 77 114 111 144 175 173 124 92 160 245 256
0 0 0 2 5 9 23 16 21 29 1 0 0 0 0 0 0 0 9 105 26 11 108 37 10 23 12 11 5 5 9 38 92
69 26 37 14 32 55 55 32 38 4 0 0 0 0 0 0 0 0 0 50 0 40 15 2 3 8 4 9 7 8 6 5 0
50 7 56 165 103 44 27 17 3 0 0 0 0 0 0 0 0 0 0 0 9 9 2 1 7 9 4 1 0 0 2 4 5
81 13 68 275 219 112 13 2 0 0 0 0 0 0 0 0 0 0 0 0 30 9 0 0 1 6 0 0 0 0 0 1 1
140 24 77 64 8 1 0 0 0 0 0 0 0 0 0 0 0 0 0 0 21 6 0 0 0 0 0 0 0 0 0 0 0
79 77 21 0 0 0 0 0 0 0 0 0 0 0 0 0 0 0 0 0 7 2 0 0 0 0 0 0 0 0 0 0 0
114 156 10 0 0 0 0 0 0 0 0 0 0 0 0 0 0 0 0 0 0 0 0 0 0 0 0 0 0 0 0 0 0
158 127 0 5 0 0 0 0 0 0 0 0 0 0 0 0 0 0 0 0 0 0 0 0 0 0 0 0 0 0 0 0 0
191 15 5 25 21 0 0 0 0 0 0 0 0 0 0 0 0 0 0 0 0 0 0 0 0 0 0 0 0 0 0 0 0
3 0 10 33 40 0 0 0 0 0 0 0 0 0 0 0 0 0 0 0 0 0 0 0 0 0 0 0 0 0 0 0 0
0 0 6 50 61 6 0 0 0 0 0 0 0 0 0 0 0 0 0 0 0 0 0 0 0 0 0 0 0 0 0 0 0
21 7 23 47 72 17 0 0 0 0 0 0 0 0 0 0 0 0 0 0 0 0 0 0 0 0 0 0 0 0 0 0 0
172 20 49 55 120 11 0 0 0 0 0 0 0 0 0 0 0 0 0 0 0 0 0 0 0 0 0 0 0 0 0 0 0
236 118 98 106 157 15 2 0 8 24 4 0 0 0 0 0 0 0 0 0 0 0 0 0 0 0 0 0 0 0 0 0 0
337 281 261 213 178 62 31 39 49 23 9 0 0 0 0 0 0 0 0 0 0 0 0 0 0 0 0 0 0 0 0 0 0
438 374 414 370 264 136 109 143 115 53 10 0 0 0 0 0 0 0 0 0 0 0 0 0 0 0 0 0 0 0 0 0 0
481 382 388 436 360 200 130 178 171 117 39 0 2 0 0 0 0 0 0 0 0 0 0 0 0 0 0 0 0 0 0 0 0

GFSFLT1_con_mucape_045.txt.gz
CAPE
0 4 9 7 1 0 0 0 0 0 0 0 0 0 8 0 0 0 0 13 30 12 0 0 21 78 1 0 36 32 25 0 56
0 0 1 0 0 0 0 0 0 0 0 0 6 4 0 0 0 9 22 64 124 100 119 152 152 177 193 85 87 124 168 171 67
0 1 1 2 3 3 3 1 0 0 0 4 0 0 0 0 0 15 24 132 64 31 106 58 55 41 42 30 43 39 122 179 240
0 0 2 6 8 22 21 12 16 20 0 0 0 0 0 0 0 1 22 93 13 102 30 7 5 7 6 4 4 8 12 13 37
26 31 42 27 51 78 83 57 56 0 0 0 0 0 0 0 0 0 23 9 85 19 3 0 7 5 6 6 7 7 7 8 6
9 0 63 170 134 134 82 60 31 0 0 0 0 0 0 0 0 0 0 4 34 6 0 3 6 4 2 0 0 3 4 6 5
52 5 58 314 332 233 73 23 0 0 0 0 0 0 0 0 0 0 0 3 25 6 1 0 5 5 0 0 0 0 0 0 0
159 17 58 157 148 36 3 0 0 0 0 0 0 0 0 0 0 0 0 24 11 7 0 0 0 0 0 0 0 0 0 0 0
210 70 57 82 31 0 0 0 0 0 0 0 0 0 0 0 0 0 0 30 7 1 0 0 0 0 0 0 0 0 0 0 0
202 115 69 41 0 0 0 0 0 0 0 0 0 0 0 0 0 0 0 0 0 0 0 0 0 0 0 0 0 0 0 0 0
199 110 121 17 0 0 0 0 0 0 0 0 0 0 0 0 0 0 0 0 0 0 0 0 0 0 0 0 0 0 0 0 0
137 131 164 19 1 12 0 0 0 0 0 0 0 0 0 0 0 0 0 0 0 0 0 0 0 0 0 0 0 0 0 0 0
29 101 192 2 38 38 1 0 0 0 0 0 0 0 0 0 0 0 0 0 0 0 0 0 0 0 0 0 0 0 0 0 0
15 111 163 0 29 50 18 0 0 0 0 0 0 0 0 0 0 0 0 0 0 0 0 0 0 0 0 0 0 0 0 0 0
158 42 52 0 24 44 40 0 0 0 0 0 0 0 0 0 0 0 0 0 0 0 0 0 0 0 0 0 0 0 0 0 0
347 156 34 8 19 47 55 11 0 0 0 0 0 0 0 0 0 0 0 0 0 0 0 0 0 0 0 0 0 0 0 0 0
393 248 138 53 31 53 86 53 0 0 0 1 2 0 0 0 0 0 0 0 0 0 0 0 0 0 0 0 0 0 0 0 0
543 311 206 117 81 108 109 96 14 5 5 2 5 0 0 0 0 0 0 0 0 0 0 0 0 0 0 0 0 0 0 0 0
673 398 294 191 132 182 142 129 72 48 40 21 27 2 2 3 5 0 0 0 0 0 0 0 0 0 0 0 0 0 0 0 0
821 560 322 145 259 211 190 153 107 88 88 46 22 13 11 4 11 0 0 0 0 0 0 0 0 0 0 0 0 0 0 0 0

GFSFLT1_con_mucape_048.txt.gz
CAPE
2 12 23 19 2 0 0 0 0 0 0 0 0 0 0 0 0 0 9 16 33 55 83 31 122 122 1 2 33 35 29 0 22
2 7 9 2 0 0 0 0 0 0 0 0 3 0 0 0 0 0 26 43 107 145 140 112 128 166 110 119 116 161 172 189 128
0 2 1 1 2 0 0 1 7 13 14 0 0 0 0 0 1 8 19 104 36 89 75 33 7 9 11 11 4 5 22 100 174
0 1 2 3 4 6 24 36 50 30 0 0 0 0 0 0 0 9 1 73 82 38 8 7 4 4 7 7 4 3 7 5 0
40 51 47 34 55 87 73 73 51 0 0 0 0 0 0 0 0 0 0 107 28 8 4 7 1 8 7 4 6 7 7 6 7
10 0 57 150 190 196 152 144 8 0 0 0 0 0 0 0 0 0 21 42 16 8 3 8 2 5 0 0 1 3 3 4 2
0 0 62 225 261 261 146 109 0 0 0 0 0 0 0 0 0 0 0 32 10 1 0 3 2 1 0 0 0 0 0 0 0
70 3 40 135 191 110 75 0 0 0 0 0 0 0 0 0 0 0 0 22 4 0 0 0 0 0 0 0 0 0 0 0 0
152 65 30 98 129 33 0 0 0 0 0 0 0 0 0 0 0 0 0 13 2 0 0 0 0 0 0 0 0 0 0 0 0
117 177 56 67 67 6 0 0 0 0 0 0 0 0 0 0 0 0 0 4 0 0 0 0 0 0 0 0 0 0 0 0 0
97 140 113 44 21 0 0 0 0 0 0 0 0 0 0 0 0 0 0 0 0 0 0 0 0 0 0 0 0 0 0 0 0
111 122 132 70 1 0 0 0 0 0 0 0 0 0 0 0 0 0 0 0 0 0 0 0 0 0 0 0 0 0 0 0 0
68 153 130 86 59 0 0 0 0 0 0 0 0 0 0 0 0 0 0 0 0 0 0 0 0 0 0 0 0 0 0 0 0
16 76 131 121 111 0 23 4 0 0 0 0 0 0 0 0 0 0 0 0 0 0 0 0 0 0 0 0 0 0 0 0 0
22 18 34 95 144 0 39 21 0 0 0 0 0 0 0 0 0 0 0 0 0 0 0 0 0 0 0 0 0 0 0 0 0
49 76 57 84 175 0 20 32 25 0 0 0 0 0 0 0 0 0 0 0 0 0 0 0 0 0 0 0 0 0 0 0 0
255 234 170 78 116 10 15 34 51 6 0 0 0 0 0 0 0 0 0 0 0 0 0 0 0 0 0 0 0 0 0 0 0
528 376 311 134 83 52 38 45 59 70 14 2 0 0 0 0 0 0 0 0 0 0 0 0 0 0 0 0 0 0 0 0 0
831 632 459 252 82 83 61 37 51 64 46 47 32 40 15 18 3 0 1 0 0 0 0 0 0 0 0 0 0 0 0 0 0
865 718 644 461 225 116 94 70 61 52 72 50 61 57 34 8 9 6 0 0 0 0 0 0 0 0 0 0 0 0 0 0 0

GFSFLT1_con_mucape_051.txt.gz
CAPE
3 50 69 38 23 0 0 0 0 0 0 0 0 0 0 0 0 0 0 27 33 127 56 111 163 9 1 51 23 4 15 11 16
6 12 29 7 0 0 0 0 0 0 0 1 0 0 0 0 0 30 61 68 100 151 105 105 162 147 103 72 84 150 187 228 39
8 8 2 0 0 0 0 1 6 5 1 0 0 0 0 0 8 31 9 76 39 63 31 8 10 5 2 2 0 5 10 62 102
3 4 2 2 2 1 23 36 43 0 0 0 0 0 0 0 0 0 0 139 54 14 5 9 6 3 4 6 4 4 4 4 1
24 21 34 5 28 61 71 74 9 0 0 0 0 0 0 0 0 0 47 40 3 6 8 4 4 1 3 4 4 4 4 4 2
5 0 27 101 204 167 149 132 0 0 0 0 0 0 0 0 0 0 102 18 4 6 12 4 3 1 0 0 1 2 2 1 0
14 6 59 151 217 234 178 31 0 0 0 0 0 0 0 0 0 0 23 18 6 0 5 5 1 0 0 0 0 0 0 0 0
50 41 109 163 125 164 123 1 0 0 0 0 0 0 0 0 0 0 16 22 3 0 0 0 0 0 0 0 0 0 0 0 0
106 44 79 160 173 83 16 0 0 0 0 0 0 0 0 0 0 0 4 12 1 0 0 0 0 0 0 0 0 0 0 0 0
146 103 58 103 101 20 3 0 0 0 0 0 0 0 0 0 0 0 0 11 0 0 0 0 0 0 0 0 0 0 0 0 0
88 124 91 60 57 17 0 0 0 0 0 0 0 0 0 0 0 0 0 0 0 0 0 0 0 0 0 0 0 0 0 0 0
37 66 93 85 15 0 0 0 0 0 0 0 0 0 0 0 0 0 0 0 0 0 0 0 0 0 0 0 0 0 0 0 0
41 61 62 78 46 1 0 0 0 0 0 0 0 0 0 0 0 0 0 0 0 0 0 0 0 0 0 0 0 0 0 0 0
81 41 64 71 64 42 0 0 0 0 0 0 0 0 0 0 0 0 0 0 0 0 0 0 0 0 0 0 0 0 0 0 0
163 73 36 87 82 77 20 0 0 0 0 0 0 0 0 0 0 0 0 0 0 0 0 0 0 0 0 0 0 0 0 0 0
399 289 16 19 100 102 107 0 1 15 0 0 0 0 0 0 0 0 0 0 0 0 0 0 0 0 0 0 0 0 0 0 0
693 503 158 22 26 33 125 8 7 22 15 0 0 0 0 0 0 0 0 0 0 0 0 0 0 0 0 0 0 0 0 0 0
882 626 507 101 90 72 104 84 6 37 32 14 1 0 0 2 0 0 0 0 0 0 0 0 0 0 0 0 0 0 0 0 0
836 733 622 365 151 146 76 125 38 25 24 41 20 20 28 36 22 0 0 4 0 0 0 0 0 0 0 0 0 0 0 0 0
745 720 716 625 421 282 211 89 53 40 40 48 46 20 0 0 33 20 2 0 0 0 0 2 0 0 0 0 0 0 0 0 0

GFSFLT1_con_mucape_054.txt.gz
CAPE
67 85 74 65 28 32 2 0 0 0 1 1 0 0 0 0 6 26 31 78 128 67 101 251 7 2 75 67 52 26 92 0 8
15 13 18 6 1 1 0 0 0 0 0 0 0 0 0 5 17 20 25 88 163 176 100 178 198 147 74 36 150 234 398 165 78
4 1 0 0 0 0 0 0 1 2 1 0 0 0 0 9 19 27 36 115 101 28 12 9 7 4 2 0 2 9 18 18 68
4 2 0 0 0 0 14 28 33 0 0 0 0 0 0 20 25 16 50 114 36 22 7 5 9 3 4 7 8 4 2 0 0
4 2 1 1 11 42 84 76 5 0 0 0 0 0 0 15 11 14 41 26 7 18 10 7 6 4 5 5 5 4 3 1 0
0 1 5 39 171 154 165 31 0 0 0 0 0 0 1 2 4 8 29 1 2 10 6 5 1 0 1 1 1 0 0 0 0
0 0 36 119 219 225 210 0 0 0 0 0 0 0 0 0 0 7 52 4 2 4 4 0 0 0 0 0 0 0 0 0 0
0 10 62 101 89 103 129 0 0 0 0 0 0 0 0 0 0 0 22 14 0 0 0 0 0 0 0 0 0 0 0 0 0
10 0 37 92 107 127 106 26 0 0 0 0 0 0 0 0 0 0 15 13 0 0 0 0 0 0 0 0 0 0 0 0 0
77 50 12 45 92 97 78 3 0 0 0 0 0 0 0 0 0 0 8 14 0 0 0 0 0 0 0 0 0 0 0 0 0
99 125 102 60 64 82 59 1 0 0 0 0 0 0 0 0 0 0 12 7 0 0 0 0 0 0 0 0 0 0 0 0 0
93 124 172 156 104 50 42 0 0 0 0 0 0 0 0 0 0 0 0 0 0 0 0 0 0 0 0 0 0 0 0 0 0
70 96 140 153 169 64 9 0 0 0 0 0 0 0 0 0 0 0 0 0 0 0 0 0 0 0 0 0 0 0 0 0 0
70 74 97 119 166 115 12 0 0 0 0 0 0 0 0 0 0 0 0 0 0 0 0 0 0 0 0 0 0 0 0 0 0
242 101 79 98 186 114 34 0 0 0 0 0 0 0 0 0 0 0 0 0 0 0 0 0 0 0 0 0 0 0 0 0 0
459 342 144 94 126 163 72 9 0 0 0 0 0 0 0 0 0 0 0 0 0 0 0 0 0 0 0 0 0 0 0 0 0
427 413 372 182 156 148 119 10 35 0 0 0 0 0 0 0 0 0 0 0 0 0 0 0 0 0 0 0 0 0 0 0 0
601 451 501 372 279 291 298 22 43 60 0 0 0 0 0 0 0 0 0 0 0 0 0 0 0 0 0 0 0 0 0 0 0
490 433 557 501 421 222 172 71 55 46 29 1 15 8 1 0 2 0 0 16 1 0 0 0 0 0 0 0 0 0 0 0 0
585 336 247 280 458 487 300 80 55 53 64 43 27 19 33 29 14 1 0 0 8 6 1 1 0 0 0 0 0 0 0 0 0

GFSFLT1_con_mucape_057.txt.gz
CAPE
86 108 72 27 66 8 3 0 0 0 0 0 0 0 0 0 35 55 82 136 119 166 199 46 0 178 224 155 156 209 105 0 62
27 28 11 1 7 3 0 0 0 0 1 0 0 0 0 14 28 26 63 123 198 174 184 170 111 50 21 51 227 335 323 309 336
0 1 0 0 0 0 0 0 0 1 1 0 0 0 0 20 15 32 29 136 14 12 12 6 9 5 4 4 6 45 56 89 82
1 0 0 0 0 0 0 3 4 1 0 0 0 0 0 17 8 32 37 82 9 15 8 6 3 2 4 6 7 4 4 0 2
36 20 0 0 0 0 51 59 8 0 0 0 0 0 0 11 2 37 6 6 10 8 6 5 5 3 3 4 3 1 0 0 0
0 0 9 57 64 80 122 17 0 0 0 0 0 0 4 4 4 24 0 0 9 9 5 4 2 1 0 1 1 0 0 0 0
0 0 0 58 206 209 178 0 0 0 0 0 0 0 0 0 0 13 7 0 5 8 3 0 0 0 0 0 0 0 0 0 0
0 4 0 1 57 51 83 0 0 0 0 0 0 0 0 0 0 2 7 3 0 1 0 0 0 0 0 0 0 0 0 0 0
0 0 0 29 42 56 89 63 0 0 0 0 0 0 0 0 0 0 15 3 0 0 0 0 0 0 0 0 0 0 0 0 0
0 0 0 31 74 92 74 60 1 0 0 0 0 0 0 0 0 1 0 3 0 0 0 0 0 0 0 0 0 0 0 0 0
53 35 19 14 45 63 59 31 0 0 0 0 0 0 0 0 0 0 0 14 0 0 0 0 0 0 0 0 0 0 0 0 0
91 94 128 87 46 47 44 24 0 0 0 0 0 0 0 0 0 0 0 0 1 0 0 0 0 0 0 0 0 0 0 0 0
129 146 138 140 151 115 65 48 1 0 0 0 0 0 0 0 0 0 0 0 0 0 0 0 0 0 0 0 0 0 0 0 0
123 133 132 108 203 123 122 51 0 0 0 0 0 0 0 0 0 0 0 0 0 0 0 0 0 0 0 0 0 0 0 0 0
340 239 140 116 182 243 85 83 9 0 0 0 0 0 0 0 0 0 0 0 0 0 0 0 0 0 0 0 0 0 0 0 0
635 507 358 252 247 306 146 142 13 0 0 0 0 0 0 0 0 0 0 0 0 0 0 0 0 0 0 0 0 0 0 0 0
849 703 625 488 381 375 261 265 58 1 0 0 0 0 0 0 0 0 0 0 0 0 0 0 0 0 0 0 0 0 0 0 0
1044 868 799 739 512 476 490 305 96 53 14 14 0 0 0 0 0 0 0 0 0 0 0 0 0 0 0 0 0 0 0 0 0
438 859 862 754 690 608 604 416 201 113 30 46 17 5 0 0 0 1 2 0 0 0 0 0 0 0 0 0 0 0 0 0 0
512 595 601 970 594 546 658 537 351 213 97 55 49 40 19 8 6 9 22 9 1 0 0 1 0 0 0 0 0 0 0 0 0

GFSFLT1_con_mucape_060.txt.gz
CAPE
191 99 89 207 100 11 3 0 1 2 3 0 0 0 0 12 48 32 70 54 197 252 102 179 209 234 291 278 380 227 48 112 3
73 56 6 2 2 4 0 0 0 1 0 0 0 0 2 16 32 38 26 19 127 145 130 107 55 16 16 136 268 311 330 346 401
10 16 1 0 0 0 0 0 0 1 0 0 0 0 0 10 23 27 14 81 2 2 7 7 8 7 3 8 48 69 75 100 157
10 1 0 0 0 0 0 1 2 0 0 0 0 0 0 5 15 15 2 105 7 3 6 8 7 7 5 6 4 4 4 0 3
78 25 45 2 1 10 42 46 0 0 0 0 0 0 0 0 0 4 0 1 9 6 4 5 2 3 2 2 0 0 1 1 2
0 0 7 51 87 96 102 42 0 0 0 0 0 0 0 1 9 0 17 0 5 5 1 1 1 0 0 0 0 0 0 0 0
0 0 0 60 107 161 165 25 0 0 0 0 0 0 0 0 0 0 0 0 6 5 2 0 0 0 0 0 0 0 0 0 0
0 0 0 0 63 87 54 1 0 0 0 0 0 0 0 0 0 0 0 0 4 2 1 0 0 0 0 0 0 0 0 0 0
3 9 0 0 23 29 45 2 0 0 0 0 0 0 0 0 0 0 0 0 0 0 0 0 0 0 0 0 0 0 0 0 0
0 0 2 3 2 11 41 49 19 0 0 0 0 0 0 0 0 0 0 0 0 0 0 0 0 0 0 0 0 0 0 0 0
0 0 0 3 13 25 36 40 21 0 0 0 0 0 0 0 0 0 0 0 0 0 0 0 0 0 0 0 0 0 0 0 0
10 0 0 0 0 16 34 28 18 2 0 0 0 0 0 0 0 0 0 0 0 0 0 0 0 0 0 0 0 0 0 0 0
44 25 29 24 27 3 9 17 14 5 0 0 0 0 0 0 0 0 0 0 0 0 0 0 0 0 0 0 0 0 0 0 0
86 48 63 61 62 53 43 26 21 9 0 0 0 0 0 0 0 0 0 0 0 0 0 0 0 0 0 0 0 0 0 0 0
264 168 90 77 67 97 103 77 33 16 1 0 0 0 0 0 0 0 0 0 0 0 0 0 0 0 0 0 0 0 0 0 0
364 292 237 149 130 108 142 141 80 63 43 1 0 0 0 0 0 0 0 0 0 0 0 0 0 0 0 0 0 0 0 0 0
556 418 357 304 165 145 146 210 134 86 86 37 18 0 0 0 0 0 0 0 0 0 0 0 0 0 0 0 0 0 0 0 0
878 668 642 422 343 232 225 269 217 149 92 64 39 18 3 0 0 0 0 4 1 0 0 0 0 0 0 0 0 0 0 0 0
503 466 709 633 773 917 488 313 328 236 117 101 71 59 28 14 13 12 0 7 16 23 14 10 1 0 0 0 0 0 0 0 0
585 450 257 364 648 878 731 613 611 488 462 153 159 110 45 28 32 43 33 18 17 29 29 32 16 0 0 0 0 0 0 0 0

GFSFLT1_con_mucape_063.txt.gz
CAPE
120 154 260 217 14 4 0 0 0 0 0 0 0 0 13 13 22 19 41 63 196 141 180 77 203 262 326 333 186 102 117 31 25
88 68 7 53 25 0 0 0 0 0 0 0 0 0 5 21 22 17 6 14 156 160 151 74 40 35 69 234 373 339 357 350 364
87 27 0 0 0 0 0 0 1 0 0 0 0 0 0 6 5 0 0 22 5 2 3 6 7 6 6 31 113 128 129 168 209
73 61 20 0 0 0 0 0 10 0 0 0 0 0 0 0 0 0 0 37 5 3 3 5 6 4 5 5 5 7 8 3 3
92 79 93 51 21 22 31 37 23 0 0 0 0 0 0 0 0 0 1 0 3 3 1 2 3 3 3 2 2 3 5 6 4
0 0 46 89 124 116 97 65 14 11 0 0 0 0 0 0 0 0 78 0 3 3 0 1 1 1 0 0 0 1 1 1 1
1 0 7 92 129 174 156 55 11 0 0 0 0 0 0 0 0 0 41 0 2 1 0 0 0 0 0 0 0 0 0 0 0
0 4 5 11 38 82 93 10 0 0 0 0 0 0 0 0 0 0 19 0 2 2 0 0 0 0 0 0 0 0 0 0 0
0 0 0 0 23 40 40 0 0 0 0 0 0 0 0 0 0 0 0 0 1 2 0 0 0 0 0 0 0 0 0 0 0
2 1 0 0 7 17 29 6 0 0 0 0 0 0 0 0 0 0 0 0 0 0 0 0 0 0 0 0 0 0 0 0 0
49 11 0 0 6 11 19 27 20 8 0 0 0 0 0 0 0 0 0 0 0 0 0 0 0 0 0 0 0 0 0 0 0
66 38 0 0 0 9 18 20 47 33 20 0 0 0 0 0 0 0 0 0 0 0 0 0 0 0 0 0 0 0 0 0 0
58 33 17 0 0 0 7 14 25 28 21 3 0 0 0 0 0 0 0 0 0 0 0 0 0 0 0 0 0 0 0 0 0
151 81 44 32 0 16 27 6 27 31 27 14 0 0 0 0 0 0 0 0 0 0 0 0 0 0 0 0 0 0 0 0 0
306 273 180 87 42 46 68 70 53 28 29 24 19 4 0 0 0 0 0 0 0 0 0 0 0 0 0 0 0 0 0 0 0
357 315 329 252 156 89 73 115 123 110 86 28 16 22 8 0 0 0 0 0 0 0 0 0 0 0 0 0 0 0 0 0 0
577 439 321 310 265 208 151 100 160 156 158 119 62 19 2 0 12 9 4 2 0 0 0 1 0 0 0 0 0 0 0 0 0
231 395 478 474 413 268 212 168 149 173 147 136 96 21 2 10 15 24 27 25 12 1 4 18 14 8 0 0 0 0 0 0 0
351 259 312 336 251 357 445 241 370 269 293 211 133 69 51 38 14 36 45 45 47 39 10 11 25 13 16 1 0 1 0 0 0
586 601 496 334 191 340 449 554 483 430 358 288 321 308 260 171 63 54 56 49 48 72 60 9 18 13 48 10 0 0 2 6 1

GFSFLT1_con_mucape_066.txt.gz
CAPE
3 268 379 98 2 0 0 0 0 0 0 0 0 2 9 0 0 13 62 0 125 147 130 239 188 255 346 79 59 58 33 2 409
45 294 116 94 0 0 0 0 0 0 0 0 0 0 0 5 6 1 36 83 159 121 65 40 28 59 253 300 263 263 250 289 322
94 129 78 31 0 0 0 0 0 0 0 0 0 0 0 0 0 0 0 39 1 1 2 6 5 3 17 78 139 164 192 263 198
152 122 67 32 0 0 0 0 22 0 0 0 0 0 0 0 0 0 0 37 1 2 2 4 5 4 0 3 10 31 23 12 18
162 122 123 74 51 31 25 41 45 15 0 0 0 0 0 0 0 0 0 0 2 0 1 1 2 2 0 2 4 5 6 6 0
36 37 68 117 119 78 51 54 57 48 0 0 0 0 0 0 0 0 115 0 2 0 1 1 1 0 0 0 0 2 3 2 0
24 20 27 115 139 144 126 80 46 0 0 0 0 0 0 0 0 0 131 0 1 1 0 0 0 0 0 1 1 1 0 0 0
23 9 21 35 58 87 117 47 0 0 0 0 0 0 0 0 0 0 110 22 2 1 0 0 0 0 0 0 1 0 1 0 0
4 3 7 8 27 49 87 27 0 0 0 0 0 0 0 0 0 0 37 59 0 2 0 0 0 0 0 0 0 0 1 0 0
0 0 0 0 10 28 64 28 4 0 0 0 0 0 0 0 0 0 0 33 35 0 0 0 0 0 0 1 0 0 1 0 0
9 25 20 0 0 5 8 15 7 6 0 0 0 0 0 0 0 0 0 0 24 0 0 0 0 1 1 3 0 0 0 0 0
48 39 54 37 0 0 0 0 7 17 12 11 5 0 0 0 0 0 0 0 0 0 0 0 0 0 2 5 1 0 0 0 0
98 45 48 35 12 0 0 0 0 26 44 31 25 18 0 0 0 0 0 0 0 0 0 0 0 0 0 2 2 0 0 0 0
142 88 90 65 29 8 0 0 0 0 12 25 17 17 1 0 0 0 0 0 0 0 0 0 0 3 0 0 0 0 0 0 0
231 252 210 178 128 71 33 10 0 0 7 0 15 15 14 6 2 0 0 0 0 0 0 0 0 0 0 0 0 0 0 0 0
253 216 250 241 204 174 147 116 69 56 95 109 99 58 40 15 23 19 10 10 0 0 0 0 0 0 0 0 0 0 0 0 0
396 291 230 247 237 215 212 178 137 110 112 135 86 50 12 13 46 60 28 18 24 32 21 2 0 2 1 0 0 0 0 0 0
306 198 148 273 297 321 287 261 198 141 141 164 140 36 1 1 0 19 33 31 25 25 37 37 20 2 8 8 0 0 0 0 0
261 202 198 155 285 215 185 216 191 164 123 132 181 156 115 47 25 12 84 65 58 57 46 30 39 24 2 20 14 0 0 0 0
36 307 276 189 131 129 141 128 215 222 178 85 118 164 186 175 214 126 34 12 35 140 105 42 40 55 72 15 6 4 5 0 1

GFSFLT1_con_mucape_069.txt.gz
CAPE
84 367 491 71 0 0 0 0 0 0 0 0 0 0 0 0 0 21 0 2 182 245 191 185 229 267 56 39 43 33 0 343 404
346 495 58 8 0 0 0 0 0 0 0 0 0 0 0 3 40 50 52 137 204 98 51 25 50 247 188 297 247 57 245 351 352
276 161 56 3 0 0 0 0 0 0 0 0 0 17 0 0 0 4 11 78 29 0 0 0 8 21 68 194 366 376 268 260 257
182 161 89 35 6 0 0 0 18 0 0 0 0 0 0 0 0 0 0 29 0 0 0 1 3 2 0 0 6 124 96 104 82
180 126 115 78 54 45 28 35 46 30 0 0 0 0 0 0 0 0 0 24 0 0 0 2 3 2 2 2 3 5 14 12 11
84 49 82 106 101 71 47 65 80 43 0 0 0 0 0 0 0 0 85 31 0 0 0 0 1 1 0 1 3 5 5 6 3
43 38 50 98 113 124 115 100 80 11 0 0 0 0 0 0 0 0 154 37 19 0 0 0 0 0 0 0 1 2 1 1 2
30 19 31 42 61 72 101 93 37 0 0 0 0 0 0 0 3 0 150 52 36 1 0 0 0 0 0 1 1 1 0 0 1
7 7 5 10 27 43 57 56 17 0 0 0 0 0 0 0 1 2 43 166 43 2 0 0 0 0 0 1 0 1 1 1 1
0 0 0 0 0 8 16 43 16 0 0 0 0 0 0 0 2 1 0 54 128 26 0 0 0 0 1 1 0 0 1 1 1
0 0 0 6 0 0 1 17 21 0 0 0 0 0 0 0 0 0 0 1 91 94 12 0 0 0 2 4 2 1 2 2 0
40 39 29 38 38 12 0 0 0 0 0 0 0 0 0 0 0 0 0 0 3 74 0 1 1 0 0 4 0 0 2 3 0
106 93 88 36 26 36 15 0 0 0 0 0 12 1 1 2 11 0 0 0 0 0 55 34 0 0 0 6 11 0 0 0 0
147 141 125 104 73 67 54 31 7 0 0 0 0 19 12 7 18 15 3 0 0 0 0 4 10 6 0 5 14 2 0 0 0
171 190 185 213 185 163 139 99 57 32 26 17 0 16 23 15 19 44 35 38 35 24 10 0 0 0 0 0 8 21 0 0 0
315 228 216 218 168 171 164 157 136 102 95 80 34 35 7 2 0 55 63 67 79 69 32 33 23 4 0 0 1 12 27 0 0
278 230 168 116 103 134 174 222 210 178 160 102 87 6 0 0 8 18 39 44 53 79 94 50 43 42 10 0 1 1 15 0 0
323 245 181 158 99 75 165 231 212 174 101 187 128 35 15 4 3 2 0 4 42 48 58 55 64 63 51 11 1 10 4 4 0
65 207 204 170 152 153 162 259 198 162 139 105 139 108 64 43 15 1 6 15 22 38 76 47 56 35 19 26 19 19 18 1 0
0 0 0 200 265 132 86 103 99 66 52 39 40 113 73 46 35 10 12 18 9 6 17 64 90 42 60 12 8 14 16 3 10

GFSFLT1_con_mucape_072.txt.gz
CAPE
131 451 220 12 0 0 0 0 0 0 0 0 6 61 6 0 0 0 0 87 191 254 170 167 271 89 37 55 45 6 55 314 322
443 400 72 0 0 0 0 0 0 0 0 0 4 59 0 35 34 8 75 150 133 88 48 5 56 228 187 263 130 104 275 344 316
686 169 66 49 0 0 0 0 0 0 0 0 10 58 10 47 69 81 56 129 61 11 0 0 0 17 19 149 350 264 256 275 293
441 141 76 59 36 10 0 0 0 0 0 0 0 7 25 0 0 0 0 30 0 0 0 0 0 0 0 0 4 130 171 172 126
337 134 121 72 56 35 21 24 40 41 28 0 0 0 0 0 0 0 0 0 0 0 0 0 0 0 0 0 0 2 20 16 17
86 55 60 90 87 41 36 42 52 28 0 0 0 0 0 1 0 0 3 28 0 0 0 0 0 0 0 0 0 0 1 2 4
48 44 48 74 73 69 60 58 69 23 0 0 0 0 10 13 3 0 30 60 36 0 0 0 0 0 0 0 0 0 0 1 1
22 24 28 38 49 51 67 69 57 17 0 0 0 0 0 0 6 8 15 113 75 27 0 0 0 0 0 0 0 0 0 0 0
0 0 3 5 14 27 30 39 36 8 0 0 0 0 0 0 0 5 5 139 89 64 1 0 0 0 0 1 1 1 0 1 0
0 0 0 0 0 0 0 6 13 4 0 0 0 0 0 0 0 0 0 19 154 85 52 0 0 0 0 0 0 0 2 1 1
0 0 0 0 0 0 0 0 0 0 0 0 0 0 0 0 0 0 0 0 54 135 56 28 1 2 0 0 0 0 6 4 3
0 0 0 0 0 0 0 0 0 0 0 0 0 0 0 0 0 0 0 0 0 52 81 25 14 1 2 0 0 0 0 6 4
29 52 44 33 5 0 0 15 4 0 0 0 0 0 5 3 2 0 14 12 1 0 133 195 47 11 3 7 0 0 0 0 8
0 66 112 121 95 90 80 77 54 44 30 26 24 16 0 15 29 58 52 63 60 43 34 42 86 156 16 6 13 0 0 0 0
112 125 153 166 164 173 170 152 134 110 92 88 50 51 46 35 39 40 47 38 64 73 66 65 54 14 151 15 9 22 0 0 0
326 282 304 251 196 193 146 114 73 61 70 68 2 1 1 1 18 28 13 29 42 40 69 52 32 47 27 143 60 20 33 0 0
390 344 289 210 128 92 91 78 92 104 150 71 176 42 3 0 0 0 0 0 7 21 32 31 30 16 7 20 38 79 40 71 2
261 314 338 307 218 147 154 93 24 42 110 58 50 44 6 6 10 16 10 2 0 0 3 10 21 27 73 43 50 29 63 4 82
0 2 59 219 216 183 119 133 80 97 55 54 67 61 32 43 10 16 6 15 2 1 17 33 4 6 10 20 42 21 35 6 35
0 0 0 0 0 94 201 100 52 61 64 54 33 22 7 11 6 7 1 2 2 1 4 0 0 0 1 7 41 34 30 58 98

GFSFLT1_con_mucape_075.txt.gz
CAPE
492 150 21 0 0 0 0 0 0 0 0 25 66 35 0 0 0 0 44 203 191 113 53 255 173 68 113 72 41 0 309 320 301
527 141 45 0 0 0 0 0 0 0 0 0 71 6 0 40 49 82 220 226 146 93 4 0 156 198 202 196 126 274 318 278 261
545 110 65 47 0 0 0 0 0 0 0 9 77 36 22 31 93 97 134 131 60 0 0 0 0 3 3 128 276 264 219 220 182
382 112 81 65 30 12 19 23 23 14 2 0 6 22 0 3 0 0 0 42 0 0 0 0 0 0 0 0 0 85 110 94 61
309 134 99 66 44 24 8 32 38 45 20 0 0 0 2 6 0 0 16 29 0 0 0 0 0 0 0 0 0 0 0 6 22
96 60 51 65 55 30 22 29 54 26 0 0 0 0 11 13 9 9 0 38 1 0 0 0 0 0 0 0 0 0 0 0 2
59 46 40 50 47 39 38 44 46 11 0 0 0 0 6 11 11 9 6 86 45 2 0 0 0 0 0 0 0 0 0 0 1
34 27 33 44 23 47 47 46 41 11 0 0 0 0 0 0 1 3 4 81 110 66 0 0 0 0 0 0 0 0 0 0 0
0 4 0 3 12 22 28 31 25 7 0 0 0 0 0 0 0 0 0 19 146 98 53 0 0 0 0 0 0 0 0 0 0
0 0 0 0 0 0 0 2 2 0 0 0 0 0 0 0 0 0 0 0 73 145 96 44 0 0 0 0 0 0 0 0 0
0 0 0 0 0 0 0 0 0 0 0 0 0 0 0 0 0 0 0 0 1 89 126 80 32 3 3 3 0 0 0 0 4
0 0 0 0 0 0 0 0 0 0 0 0 0 0 0 0 0 0 0 0 0 1 92 104 57 24 4 8 11 0 0 0 0
0 0 0 0 0 0 0 0 0 0 0 2 0 0 0 0 1 17 37 37 26 29 12 114 150 61 26 11 16 17 0 0 0
16 9 6 27 49 44 42 69 78 71 49 50 41 40 40 42 31 46 66 60 78 56 47 39 108 238 152 33 35 31 27 0 0
97 78 73 70 73 116 107 132 134 106 84 42 24 42 37 12 10 35 11 16 31 35 30 39 36 16 120 136 41 55 39 0 0
288 288 294 201 201 198 169 118 77 31 32 25 23 0 0 0 0 0 0 0 0 4 38 49 33 15 2 150 289 182 101 88 5
411 402 383 299 250 249 195 86 42 15 47 42 14 4 2 0 1 7 5 8 2 0 0 0 1 8 6 2 67 288 142 139 148
200 194 209 234 221 232 248 189 102 94 38 11 41 37 10 9 12 0 3 5 5 0 0 0 0 1 4 3 2 6 144 139 159
0 0 0 0 65 200 267 164 117 60 72 14 18 49 46 37 5 3 7 8 1 0 0 0 0 0 0 0 0 5 20 83 194
0 0 0 0 0 2 102 50 87 94 73 50 49 46 29 4 12 16 7 0 0 2 0 0 0 0 0 0 0 7 18 23 174

GFSFLT1_con_mucape_078.txt.gz
CAPE
288 65 0 0 0 0 6 1 1 0 39 68 27 0 0 0 49 59 159 125 132 71 0 218 120 219 187 89 0 265 302 297 309
342 68 14 0 0 0 1 3 0 0 17 64 39 19 0 86 94 173 144 118 87 1 0 0 1 58 176 200 249 241 281 240 190
334 86 60 10 0 0 7 6 0 0 0 72 46 0 0 76 100 83 65 52 0 0 0 0 0 0 0 30 207 207 216 184 102
334 103 85 50 20 25 28 30 24 11 0 19 36 14 0 0 0 0 3 20 0 0 0 0 0 0 0 0 0 0 35 66 25
341 125 117 67 44 19 33 40 34 20 0 0 0 0 0 11 8 0 18 0 0 0 0 0 0 0 0 0 0 0 0 0 0
118 80 39 56 36 28 21 31 42 8 0 0 0 0 11 20 11 2 0 28 9 0 0 0 0 0 0 0 0 0 0 0 0
95 67 33 42 43 25 25 28 31 1 0 0 0 0 5 9 13 8 0 40 57 13 0 0 0 0 0 0 0 0 0 0 0
47 53 57 73 17 54 29 42 19 0 0 0 0 0 0 0 1 0 0 15 97 99 10 0 0 0 0 0 0 0 0 0 0
0 0 0 0 0 5 7 1 0 0 0 0 0 0 0 0 0 0 0 0 40 123 100 17 0 0 0 0 0 0 0 0 0
0 0 0 0 0 0 0 0 0 0 0 0 0 0 0 0 0 0 0 0 0 82 124 127 38 1 0 1 1 0 0 0 0
0 0 0 0 0 0 0 0 0 0 0 0 0 0 0 0 0 0 0 0 0 0 84 128 118 68 14 10 7 5 0 0 0
0 0 0 0 0 0 0 0 0 0 0 0 0 0 0 0 0 0 0 0 0 0 24 84 135 118 75 26 9 2 0 0 0
62 29 41 34 0 0 0 0 0 0 0 3 0 0 2 9 14 10 1 0 14 21 26 26 104 168 113 90 36 32 5 0 0
210 136 74 62 67 62 47 34 30 80 63 38 26 19 26 36 26 43 53 45 21 34 10 18 15 174 212 88 70 51 52 15 0
223 224 195 133 103 91 108 132 197 100 103 39 2 33 27 41 51 47 11 3 2 3 31 33 22 23 32 176 110 98 112 123 30
215 327 343 298 223 194 196 178 130 130 116 40 33 56 0 0 0 0 1 6 0 0 0 0 0 0 0 30 200 145 121 153 210
519 494 494 426 329 315 242 169 169 150 112 51 54 9 0 0 0 0 0 0 0 0 0 0 0 0 0 0 5 93 176 181 201
287 317 310 378 417 189 165 267 177 117 126 117 85 55 14 21 17 0 0 0 0 2 0 0 0 0 0 0 0 4 3 68 215
0 0 0 2 8 6 12 31 29 176 103 79 51 20 9 35 20 15 1 0 0 0 0 0 0 0 0 0 0 0 1 5 16
0 0 0 0 0 3 9 11 13 7 62 21 75 72 36 21 30 28 35 11 5 0 0 0 0 0 0 0 0 0 0 0 0

GFSFLT1_con_mucape_081.txt.gz
CAPE
38 0 0 0 2 10 4 6 4 40 73 38 0 0 0 3 29 240 99 51 31 0 0 84 58 161 217 102 181 283 270 213 167
50 0 0 0 0 0 0 0 0 13 61 55 32 0 4 61 91 107 37 0 0 0 0 0 1 4 37 182 238 229 215 167 88
101 59 5 0 0 2 6 1 6 8 65 53 29 2 24 8 5 0 0 12 0 0 0 0 0 0 0 0 62 151 157 112 57
238 100 58 16 14 14 18 15 14 0 4 35 20 4 9 0 0 0 2 18 0 0 0 0 0 0 0 0 0 0 0 2 2
343 177 122 52 22 17 28 19 17 10 0 0 0 0 0 8 0 0 2 7 5 0 0 0 0 0 0 0 0 0 0 0 0
56 71 63 63 36 21 18 31 34 7 0 0 0 0 2 0 0 0 12 16 0 0 0 0 0 0 0 0 0 0 0 0 0
129 61 26 42 28 21 21 28 36 3 0 0 0 0 0 0 0 2 0 3 35 11 0 0 0 0 0 0 0 0 0 0 0
45 64 43 53 16 41 23 26 15 1 0 0 0 0 0 0 0 0 0 0 35 74 31 0 0 0 0 0 0 0 0 0 0
0 0 0 0 0 0 0 0 0 0 0 0 0 0 0 0 0 0 0 0 3 47 60 65 0 0 0 0 0 0 0 0 0
0 0 0 0 0 0 0 0 0 0 0 0 0 0 0 0 0 0 0 0 0 9 61 63 95 5 0 0 0 0 0 0 0
0 0 0 0 0 0 0 0 0 0 0 0 0 0 0 0 0 0 0 0 0 0 20 59 60 105 68 5 3 0 0 0 0
0 5 23 0 0 0 0 0 0 0 0 0 0 0 0 0 0 0 0 0 0 0 0 30 64 83 93 95 17 8 0 0 0
173 69 79 134 68 8 7 8 0 0 0 4 20 1 0 2 15 23 26 15 0 0 0 1 10 64 142 152 154 37 15 2 0
353 304 240 179 220 219 186 156 172 172 122 167 124 60 70 70 49 48 65 99 56 5 0 0 0 28 90 170 170 203 202 186 10
509 477 433 375 377 321 311 242 257 349 351 151 115 119 84 111 106 94 44 15 51 36 23 14 0 0 1 27 121 136 221 330 173
390 432 483 582 467 411 331 308 264 357 354 139 139 89 136 83 0 0 9 20 30 2 0 0 1 1 0 33 47 63 251 226 257
637 576 872 813 694 722 617 524 296 216 169 102 101 57 2 0 7 16 11 0 0 0 0 0 0 0 0 0 0 1 9 92 212
460 463 1051 1020 891 636 572 488 266 52 131 78 84 91 22 35 31 23 0 3 0 0 0 0 0 0 0 0 0 0 0 9 11
9 9 5 11 4 7 33 30 43 68 56 147 52 58 54 60 39 25 6 7 1 25 10 1 7 1 0 0 0 0 0 0 0
0 0 0 0 0 0 1 4 7 27 26 32 34 27 28 9 25 37 28 65 25 9 12 0 0 0 0 0 0 0 0 0 0

GFSFLT1_con_mucape_084.txt.gz
CAPE
0 0 0 7 10 2 3 2 5 52 0 0 0 0 6 18 18 6 2 0 0 0 0 3 4 7 166 288 264 267 193 132 88
0 0 0 1 1 1 0 1 21 48 48 45 32 6 30 13 12 0 0 0 0 0 0 0 0 5 5 47 221 214 145 96 31
14 0 0 0 0 0 0 3 1 56 52 35 29 24 2 1 0 0 0 24 0 0 0 0 0 0 1 0 0 3 27 10 3
105 45 14 15 14 18 16 11 9 0 23 24 12 2 0 0 0 0 0 24 0 0 0 0 0 0 0 0 0 0 0 0 0
307 137 100 41 28 32 23 18 18 0 0 0 0 0 0 0 0 0 0 0 0 0 0 0 0 0 0 0 0 0 0 0 0
58 69 73 87 60 24 28 30 29 0 0 0 0 0 0 0 0 0 23 0 0 0 0 0 0 0 0 0 0 0 0 0 0
71 46 30 64 50 38 30 31 33 3 0 0 0 0 0 0 0 0 5 0 10 4 0 0 0 0 0 0 0 0 0 0 0
65 18 1 2 0 0 17 14 6 0 0 0 0 0 0 0 0 0 0 0 5 45 57 0 0 0 0 0 0 0 0 0 0
0 35 13 14 15 0 17 9 10 0 0 0 0 0 0 0 0 0 0 0 0 20 54 75 18 0 0 0 0 0 0 0 0
0 0 0 0 0 0 0 0 0 0 0 0 0 0 0 0 0 0 0 0 0 3 31 59 78 83 1 0 0 0 0 0 0
0 0 0 0 0 0 0 0 0 0 0 0 0 0 0 0 0 0 0 0 0 0 4 41 71 73 174 46 0 0 0 0 0
0 0 0 0 0 0 0 0 0 0 0 0 0 0 0 0 0 0 0 0 0 0 4 17 59 104 140 156 126 7 0 0 0
7 0 0 56 33 0 0 0 0 0 0 0 0 1 0 0 0 0 8 8 2 0 0 78 87 97 118 204 226 150 131 33 0
246 224 156 125 155 156 118 64 58 65 53 129 96 34 33 15 6 19 34 46 64 31 26 22 18 67 62 81 186 233 384 346 142
448 392 363 330 293 334 266 452 370 476 386 86 69 61 51 39 26 42 35 53 44 57 36 43 12 11 34 47 75 75 240 307 200
499 449 410 735 996 444 477 305 190 163 144 98 66 2 0 0 57 52 44 17 9 11 40 0 0 0 8 28 32 7 25 75 255
571 663 586 778 467 555 528 556 357 184 301 120 34 23 0 0 0 27 27 29 30 9 0 0 0 0 0 0 0 0 0 0 6
456 436 738 665 822 643 513 328 322 286 35 28 54 23 7 4 8 28 28 14 5 0 6 1 0 0 0 0 0 0 0 0 0
216 96 34 10 0 3 1 3 3 21 9 13 39 79 65 33 27 19 15 21 15 17 24 3 6 0 0 0 0 0 0 5 7
0 0 0 0 0 0 0 0 0 0 6 13 7 23 29 41 56 29 25 27 34 8 10 8 15 1 0 0 0 0 0 0 0

GFSFLT1_con_mucape_087.txt.gz
CAPE
1 5 9 7 10 8 9 37 40 0 0 0 9 52 46 1 0 0 0 0 0 0 0 6 8 69 95 263 258 240 118 7 4
0 1 2 2 3 3 1 44 42 39 36 38 45 22 2 10 0 0 0 0 0 0 0 0 4 25 26 67 95 92 91 10 5
0 0 0 1 7 11 14 5 46 45 37 33 21 8 0 0 0 0 0 5 0 0 0 0 0 1 5 2 1 8 11 4 1
0 19 9 24 29 27 24 15 11 20 21 3 0 0 0 0 0 0 0 11 0 0 0 0 0 0 0 0 0 0 0 0 0
164 50 50 30 25 25 23 22 15 0 0 0 0 0 0 0 0 0 0 0 0 0 0 0 0 0 0 0 0 0 0 0 0
29 19 40 53 44 27 28 29 18 0 0 0 0 0 0 0 0 0 11 0 0 0 0 0 0 0 0 0 0 0 0 0 0
40 29 29 65 42 32 31 32 35 0 0 0 0 0 0 0 0 0 0 0 0 3 0 0 0 0 0 0 0 0 0 0 0
60 20 2 2 0 0 4 4 0 0 0 0 0 0 0 0 0 0 2 18 7 37 63 9 0 0 0 0 0 0 0 0 0
53 0 0 0 0 0 0 0 0 0 0 0 0 0 0 0 0 0 0 31 1 12 40 87 67 8 0 0 0 0 0 0 0
0 0 0 0 0 0 0 0 0 0 0 0 0 0 0 0 0 0 0 0 32 0 11 43 92 171 59 0 0 0 0 0 0
0 0 0 0 0 0 0 0 0 0 0 0 0 0 0 0 0 0 0 0 0 34 11 17 66 118 160 154 53 0 0 0 0
0 0 0 0 0 0 0 0 0 0 0 0 0 0 0 0 0 0 0 0 0 11 29 60 92 120 177 162 174 132 43 0 0
0 0 0 0 2 3 0 0 0 0 0 0 1 5 9 1 0 8 24 31 53 22 43 108 150 115 126 128 154 217 238 174 84
83 51 35 61 108 119 103 78 35 34 36 72 240 42 44 5 12 14 22 57 68 58 61 47 68 63 71 73 90 96 154 209 148
384 313 284 272 350 494 251 385 174 134 116 164 76 47 2 22 0 9 46 64 56 44 58 83 47 13 20 33 42 44 14 28 100
563 530 436 474 486 294 372 315 149 106 91 241 18 12 6 0 0 0 49 61 23 22 28 31 21 0 0 0 0 0 0 0 1
605 551 564 543 591 389 338 366 180 136 42 26 16 16 0 0 0 0 10 23 23 30 36 6 0 0 0 0 0 0 0 0 3
527 462 342 295 438 532 310 301 223 44 21 23 46 22 15 5 0 5 30 19 21 27 13 1 3 1 0 0 0 0 0 2 5
568 550 443 367 130 9 0 1 1 8 2 5 6 43 60 53 11 0 2 14 29 15 16 14 0 9 1 1 0 0 0 2 4
0 0 0 0 0 0 0 0 0 0 0 2 4 2 4 23 51 28 0 21 28 18 12 10 7 3 4 1 0 0 0 4 5

GFSFLT1_con_mucape_090.txt.gz
CAPE
10 11 10 13 8 8 5 2 19 0 23 47 82 14 38 0 0 0 0 0 0 0 3 7 38 214 157 199 185 138 64 6 3
9 6 7 7 6 11 34 47 65 60 73 81 30 16 19 0 0 0 0 0 0 0 0 2 10 23 21 70 75 71 31 2 6
5 3 4 12 23 23 52 55 52 45 50 32 11 0 17 0 0 0 0 0 0 0 0 0 0 2 11 9 6 7 1 3 1
0 12 26 28 33 26 23 34 41 26 9 2 0 0 0 0 0 0 0 0 0 0 0 0 0 0 0 0 0 0 0 0 0
59 38 58 38 34 32 31 19 8 0 0 0 0 0 0 0 0 0 0 0 0 0 0 0 0 0 0 0 0 0 0 0 0
0 0 31 57 37 27 25 15 0 0 0 0 0 0 0 0 0 0 0 0 0 0 0 0 0 0 0 0 0 0 0 0 0
0 0 2 45 42 30 25 15 5 0 0 0 0 0 0 0 0 0 5 0 0 0 0 0 0 0 0 0 0 0 0 0 0
28 0 0 0 0 0 0 0 0 0 0 0 0 0 0 0 0 0 0 28 0 15 47 0 0 0 0 0 0 0 0 0 0
51 0 0 0 0 0 0 0 0 0 0 0 0 0 0 0 0 0 0 36 2 0 25 84 91 23 0 0 0 0 0 0 0
68 0 0 0 0 0 0 0 0 0 0 0 0 0 0 0 0 0 0 0 43 24 14 29 64 145 128 62 4 2 0 0 0
10 0 0 0 0 0 0 0 0 0 0 0 0 0 0 0 0 0 0 0 0 65 34 46 50 81 150 203 126 72 31 10 0
0 0 0 0 0 0 0 0 0 0 0 0 0 0 0 0 0 0 0 0 3 7 53 88 110 119 121 124 124 145 136 92 26
0 0 0 0 0 0 0 0 0 0 0 0 0 5 39 39 76 9 36 24 21 32 36 133 198 147 125 96 135 153 138 139 142
0 0 0 19 54 92 84 85 70 45 24 136 45 75 33 18 14 19 57 59 54 50 42 51 57 51 50 80 106 99 62 59 92
137 97 150 187 156 100 130 145 154 150 96 75 81 31 27 17 1 0 3 39 69 76 58 48 55 37 34 35 30 22 4 4 4
372 404 401 389 340 653 277 216 189 178 114 48 25 9 6 0 0 0 0 1 63 88 44 35 20 12 0 0 0 0 0 0 5
651 538 549 494 416 401 335 315 284 154 63 39 5 9 0 0 0 0 0 4 30 37 43 15 11 3 0 0 0 0 0 0 2
710 633 520 406 439 287 371 193 187 19 6 10 22 21 3 0 5 8 9 17 22 26 18 22 7 6 0 1 0 0 0 0 2
498 429 437 387 280 91 84 103 1 0 0 0 0 4 45 43 5 5 6 22 22 18 19 14 11 13 3 0 0 0 0 1 7
171 433 434 443 335 51 0 0 0 0 0 0 0 1 6 0 20 22 8 21 20 22 20 21 17 9 8 0 0 0 0 5 3

GFSFLT1_con_mucape_093.txt.gz
CAPE
7 8 13 75 76 4 2 18 32 50 111 73 49 53 0 0 0 0 0 0 0 1 4 6 34 201 179 123 78 70 8 4 9
8 12 4 5 2 11 45 44 68 92 112 29 20 32 0 0 0 0 0 0 0 0 0 2 6 4 4 11 9 11 7 3 4
8 9 6 23 34 63 64 73 83 99 71 20 17 19 0 0 0 0 0 0 0 0 0 0 0 0 3 3 2 1 1 1 1
6 16 34 27 32 42 57 56 53 43 18 0 0 0 0 0 0 0 0 0 0 0 0 0 0 0 0 0 0 0 0 0 0
73 68 92 39 28 24 17 9 0 0 0 0 0 0 0 0 0 0 0 0 0 0 0 0 0 0 0 0 0 0 0 0 0
0 0 24 49 24 11 6 5 0 0 0 0 0 0 0 0 0 0 0 0 0 0 0 0 0 0 0 0 0 0 0 0 0
0 0 0 37 13 5 0 0 0 0 0 0 0 0 0 0 0 0 0 0 0 0 0 0 0 0 0 0 0 0 0 0 0
0 0 0 0 0 0 0 0 0 0 0 0 0 0 0 0 0 0 0 0 0 1 18 0 0 0 0 0 0 0 0 0 0
27 1 0 0 0 0 0 0 0 0 0 0 0 0 0 0 0 0 0 0 50 26 19 73 109 38 3 0 0 0 0 0 0
34 31 0 0 0 0 0 0 0 0 0 0 0 0 0 0 0 0 0 0 65 71 59 54 77 152 238 120 47 12 18 0 0
84 38 1 0 0 0 0 0 0 0 0 0 0 0 0 0 0 0 0 0 8 66 69 81 84 109 127 103 102 105 97 39 21
122 20 0 0 0 0 0 0 0 0 0 0 0 0 0 0 0 1 1 11 34 30 51 78 140 146 90 76 90 113 107 113 114
31 0 0 0 0 0 0 0 0 0 0 0 2 7 7 7 27 7 15 35 30 28 42 104 114 96 91 109 120 123 61 80 111
61 0 0 0 0 17 37 41 64 65 18 16 18 20 40 28 11 23 23 34 44 57 59 56 46 70 77 102 94 49 9 1 4
112 10 2 0 61 112 113 13 62 77 96 67 66 42 20 12 5 0 0 2 21 60 77 72 61 70 55 42 23 15 1 1 1
198 137 161 221 288 208 196 271 160 181 138 99 12 2 1 0 0 0 0 0 12 53 79 70 81 13 2 0 0 0 0 0 0
407 370 439 448 433 359 359 318 301 254 95 24 15 1 0 0 0 0 0 0 9 32 40 59 44 26 2 1 0 0 0 0 0
400 382 381 527 473 376 315 216 187 96 13 1 6 9 1 0 0 1 4 3 10 16 23 29 32 16 22 14 5 0 0 0 1
340 345 449 493 391 386 330 221 28 47 88 0 0 0 8 12 4 0 7 9 13 13 12 14 19 31 30 19 6 0 0 0 1
233 283 227 248 338 442 377 200 40 0 0 0 0 0 0 0 6 2 0 5 23 13 14 17 25 36 31 24 11 0 0 0 1

GFSFLT1_con_mucape_096.txt.gz
CAPE
9 5 10 10 14 13 33 47 69 168 83 89 47 11 0 0 0 0 0 0 0 1 0 0 1 2 10 9 10 5 7 4 3
9 11 68 76 82 56 58 60 108 172 42 47 74 0 0 0 0 0 0 0 0 0 0 0 0 0 0 0 1 2 4 2 0
5 6 5 25 67 60 82 103 134 90 18 29 38 0 0 0 0 0 0 0 0 0 0 0 0 0 0 0 0 0 0 0 0
13 7 27 31 50 80 81 79 70 33 3 0 0 0 0 0 0 0 0 0 0 0 0 0 0 0 0 0 0 0 0 0 0
47 58 65 50 28 25 23 13 0 0 0 0 0 0 0 0 0 0 0 0 0 0 0 0 0 0 0 0 0 0 0 0 0
30 13 42 56 29 16 2 0 0 0 0 0 0 0 0 0 0 0 0 0 0 0 0 0 0 0 0 0 0 0 0 0 0
0 0 10 40 24 14 0 0 0 0 0 0 0 0 0 0 0 0 0 0 0 0 0 0 0 0 0 0 0 0 0 0 0
0 0 0 0 0 0 0 0 0 0 0 0 0 0 0 0 0 0 0 0 0 0 0 0 0 0 0 0 0 0 0 0 0
1 0 0 0 0 0 0 0 0 0 0 0 0 0 0 0 0 0 0 0 14 42 18 38 98 89 58 5 0 0 0 0 0
30 19 1 0 0 0 0 0 0 0 0 0 0 0 0 0 0 0 0 0 4 42 61 64 58 117 109 111 88 63 23 3 0
47 36 14 0 0 0 0 0 0 0 0 0 0 0 0 0 0 0 0 0 5 31 60 68 99 101 49 57 72 80 91 109 56
157 59 18 0 0 0 0 0 0 0 0 0 0 0 0 0 2 0 2 10 19 23 48 72 105 97 67 95 86 107 100 110 124
120 126 18 0 0 0 0 0 0 0 0 0 1 9 7 6 7 14 20 30 17 45 44 51 92 63 71 102 113 51 19 11 16
181 84 0 0 0 5 10 15 40 53 32 8 8 14 18 28 10 8 4 1 4 15 40 65 64 89 115 111 89 35 4 0 0
236 183 26 0 8 45 97 109 25 70 31 68 84 49 17 1 0 0 0 0 0 0 26 66 65 66 86 62 40 16 0 0 0
234 247 32 15 24 113 156 125 209 148 137 120 5 1 0 0 0 0 0 0 0 0 21 59 58 65 19 11 0 0 0 0 0
246 275 135 157 202 325 305 441 242 228 126 22 9 0 0 0 0 0 0 0 0 2 27 44 52 24 41 16 1 2 0 0 0
310 336 313 327 281 338 365 335 229 105 52 0 11 6 0 0 0 0 0 0 0 10 21 24 26 36 26 27 9 4 7 0 0
264 260 242 185 232 261 220 160 243 276 113 53 68 13 9 8 0 0 0 0 0 5 25 17 23 34 37 29 27 22 1 0 0
206 194 136 132 168 187 125 203 247 174 11 0 0 0 0 0 0 0 0 0 0 11 23 17 7 28 42 37 31 24 7 0 0

GFSFLT1_con_mucape_099.txt.gz
CAPE
13 13 92 133 141 21 88 94 188 139 132 43 0 0 0 0 0 0 0 0 0 0 0 0 0 0 0 1 3 4 2 2 0
14 14 28 53 90 87 86 106 149 44 61 62 0 0 0 0 0 0 0 0 0 0 0 0 0 0 0 0 0 0 0 0 0
7 64 90 79 100 103 98 135 147 29 53 65 0 0 0 0 0 0 0 0 0 0 0 0 0 0 0 0 0 0 0 0 0
12 40 52 52 62 113 121 139 100 11 2 20 0 0 0 0 0 0 0 0 0 0 0 0 0 0 0 0 0 0 0 0 0
3 49 80 77 70 95 85 66 21 0 0 0 0 0 0 0 0 0 0 0 0 0 0 0 0 0 0 0 0 0 0 0 0
7 4 35 78 53 32 17 1 0 0 0 0 0 0 0 0 0 0 0 0 0 0 0 0 0 0 0 0 0 0 0 0 0
0 0 0 30 22 11 0 0 0 0 0 0 0 0 0 0 0 0 0 0 0 0 0 0 0 0 0 0 0 0 0 0 0
0 1 0 0 0 0 0 0 0 0 0 0 0 0 0 0 0 0 0 0 0 8 20 19 0 0 0 0 0 0 0 0 0
0 0 0 0 0 0 0 0 0 0 0 0 0 0 0 0 0 0 0 0 0 66 52 40 70 101 72 34 13 0 0 0 0
0 0 0 0 0 0 0 0 0 0 0 0 0 0 0 0 0 0 0 0 0 34 64 73 83 96 75 55 77 86 58 51 6
0 6 2 0 0 0 0 0 0 0 0 0 0 0 0 0 0 0 0 0 6 7 38 66 80 80 63 56 62 70 77 83 110
53 34 19 0 0 0 0 0 0 0 0 0 0 0 0 0 1 0 3 0 5 10 28 63 86 84 61 49 68 76 50 51 79
118 122 39 8 0 0 0 0 0 0 0 0 0 5 9 5 4 11 9 16 19 12 28 34 47 57 53 74 73 32 0 0 0
161 105 81 19 0 0 0 0 0 20 20 8 8 14 11 24 11 13 3 3 0 1 0 13 33 48 72 97 64 25 0 0 0
172 146 59 18 0 0 26 36 30 0 8 45 129 127 49 4 0 0 0 0 0 0 0 12 48 51 77 39 26 11 0 0 2
118 198 141 21 0 0 28 114 91 45 72 231 47 0 0 0 0 0 0 0 0 0 0 2 47 46 33 25 0 0 0 0 0
175 149 187 20 3 21 100 172 253 360 183 85 1 1 0 0 0 0 0 0 0 0 0 8 31 40 35 4 12 7 4 0 1
153 125 175 106 108 160 220 239 234 232 83 49 39 2 0 1 0 0 0 0 0 0 0 5 21 12 12 31 14 6 11 15 13
167 121 126 133 117 121 76 98 153 134 147 163 86 13 3 12 0 0 0 0 0 0 1 9 17 19 22 30 15 27 19 19 13
127 93 97 103 107 2 41 54 60 79 101 75 0 0 0 4 20 0 0 0 0 0 0 10 13 16 21 15 17 32 13 6 1

GFSFLT1_con_mucape_102.txt.gz
CAPE
18 160 206 306 224 175 154 271 141 122 61 1 0 0 0 0 0 0 0 0 0 0 0 0 0 0 0 1 1 1 0 0 1
19 39 151 146 175 129 140 164 95 99 63 1 0 0 0 0 0 0 0 0 0 0 0 0 0 0 0 0 0 0 0 0 1
15 29 115 188 141 113 149 127 33 56 84 0 0 0 0 0 0 0 0 0 0 0 0 0 0 0 0 0 0 0 0 0 0
69 134 136 128 133 116 167 138 31 28 85 0 0 0 0 0 0 0 0 0 0 0 0 0 0 0 0 0 0 0 0 0 0
66 74 48 77 198 164 155 106 32 0 0 0 0 0 0 0 0 0 0 0 0 0 0 0 0 0 0 0 0 0 0 0 0
5 5 59 131 120 93 79 25 0 0 0 0 0 0 0 0 0 0 0 0 0 0 0 0 0 0 0 0 0 0 0 0 0
6 26 48 81 59 32 1 0 0 0 0 0 0 0 0 0 0 0 0 0 1 0 0 0 0 0 0 0 0 0 0 0 0
7 9 1 0 0 0 0 0 0 0 0 0 0 0 0 0 0 0 0 0 0 59 42 53 0 0 0 0 0 0 0 0 0
0 0 0 0 0 0 0 0 0 0 0 0 0 0 0 0 0 0 0 0 0 27 67 69 80 96 81 69 45 22 0 0 0
0 0 0 0 0 0 0 0 0 0 0 0 0 0 0 0 0 0 0 0 0 2 47 69 98 83 70 46 78 83 81 71 51
38 33 16 14 0 0 0 0 0 0 0 0 0 0 0 0 0 1 2 0 0 2 15 59 81 87 76 58 45 54 61 66 76
93 92 90 35 13 0 0 0 0 0 0 0 0 0 2 1 6 3 5 0 0 0 1 41 94 78 67 68 54 54 25 15 24
197 224 138 83 42 14 2 0 0 0 0 4 7 7 14 12 6 7 14 27 25 16 0 0 12 53 58 71 76 33 3 0 0
362 349 270 138 79 58 29 0 0 0 21 28 8 5 11 26 21 23 12 1 0 0 1 0 2 20 52 78 60 13 0 0 0
466 371 309 211 62 16 2 0 0 61 71 34 26 51 66 18 7 0 0 0 0 0 0 26 17 32 76 58 14 2 0 0 0
435 459 381 264 55 3 6 25 65 94 79 177 96 51 12 0 0 0 0 0 0 0 11 55 15 26 39 34 34 6 0 0 0
295 285 287 246 147 35 63 124 271 285 227 125 66 14 1 0 0 0 0 0 0 0 0 2 9 35 36 31 11 4 3 3 1
224 160 168 123 119 124 238 352 387 225 246 215 104 54 6 2 3 0 0 0 0 0 0 0 9 23 27 11 19 6 7 3 6
100 74 65 84 86 164 196 121 104 126 166 109 83 138 131 3 0 2 0 0 0 0 0 0 0 6 11 27 11 17 10 11 14
138 95 62 56 64 17 68 42 39 12 18 21 67 56 9 7 3 0 0 0 0 0 0 0 0 0 8 10 13 12 3 54 19

GFSFLT1_con_mucape_105.txt.gz
CAPE
103 470 612 157 196 389 247 158 81 60 0 0 0 0 0 0 0 0 0 0 0 0 0 0 0 0 0 0 0 0 0 1 0
282 430 278 130 363 182 198 113 107 72 5 0 0 0 0 0 0 0 0 0 0 0 0 0 0 0 0 0 0 0 0 0 0
233 271 205 252 155 173 119 54 66 119 19 0 0 0 0 0 0 0 0 0 0 0 0 0 0 0 0 0 0 0 0 0 0
104 160 15 321 136 201 163 36 37 118 25 0 0 0 0 1 0 0 0 0 0 0 0 0 0 0 0 0 0 0 0 0 0
32 100 183 400 347 367 214 47 0 41 36 0 0 0 0 0 0 1 0 0 0 0 0 0 0 0 0 0 0 0 0 0 0
11 14 73 147 321 235 150 57 0 0 0 0 0 0 0 0 0 2 0 0 0 0 0 0 0 0 0 0 0 0 0 0 0
9 32 63 124 112 105 58 7 0 0 0 0 0 0 0 0 0 0 0 0 0 0 0 0 0 0 0 0 0 0 0 0 0
44 54 39 35 2 2 0 0 0 0 0 0 0 0 0 0 0 0 0 0 0 17 38 55 19 0 3 0 0 0 0 0 0
3 9 0 0 0 0 0 0 0 0 0 0 0 0 0 0 0 0 0 0 0 0 41 104 92 109 83 88 69 39 13 2 0
0 0 0 0 0 0 0 0 0 0 0 0 0 0 0 0 0 0 0 0 0 0 2 52 80 107 90 92 80 83 93 89 112
0 0 0 1 0 0 0 0 0 0 0 0 0 0 0 0 0 2 3 0 0 0 5 40 88 118 84 67 64 55 75 59 59
26 46 58 36 13 0 0 0 0 0 0 1 1 1 5 14 22 22 14 3 0 0 0 27 67 83 90 78 72 71 26 11 1
102 139 119 86 23 9 9 10 0 0 0 3 10 7 20 18 15 13 7 34 28 9 18 6 10 28 75 99 63 30 1 0 0
214 292 269 101 84 42 24 9 0 0 5 35 75 50 12 15 6 14 11 8 6 1 2 0 0 0 43 91 46 0 0 0 0
394 398 285 207 126 69 51 26 8 3 80 67 42 44 32 102 35 10 0 0 0 0 1 22 2 0 42 73 18 0 9 0 0
476 484 455 550 259 102 30 34 35 85 192 121 121 61 71 15 1 0 0 0 0 0 0 26 1 1 15 28 20 34 8 0 7
453 549 671 424 446 279 120 70 148 274 256 215 127 27 17 3 0 0 0 0 0 0 0 1 3 8 2 17 19 11 7 9 1
570 487 498 279 197 323 243 301 271 294 377 291 119 57 52 11 2 0 0 0 0 0 0 0 0 0 7 13 6 4 7 10 7
452 330 176 79 75 94 104 92 131 293 146 146 57 94 73 69 0 0 0 0 0 0 0 0 0 0 0 1 0 0 3 5 0
168 181 108 63 35 66 74 63 47 75 73 34 9 3 0 10 0 0 0 0 0 0 0 0 0 0 0 0 0 0 0 46 73

GFSFLT1_con_mucape_108.txt.gz
CAPE
415 755 611 217 125 88 4 5 1 0 0 0 0 0 0 0 0 0 0 0 0 0 0 0 0 0 0 0 0 0 0 0 1
632 620 243 227 541 523 145 57 5 0 0 0 0 0 0 0 0 0 0 0 0 0 0 0 0 0 0 0 0 0 0 0 0
660 297 160 266 386 199 157 108 55 4 0 0 0 0 0 0 0 0 0 0 0 0 0 0 0 0 0 0 0 0 0 0 0
344 129 20 432 323 251 96 69 128 36 0 0 0 0 0 0 0 0 0 0 0 0 0 0 0 0 0 0 0 0 0 0 0
81 30 70 380 436 496 191 36 131 125 1 0 0 0 0 0 0 0 0 0 0 0 0 0 0 0 0 0 0 0 0 0 0
8 4 40 156 276 444 173 24 10 5 0 0 0 0 0 0 0 0 0 0 0 0 0 0 0 0 0 0 0 0 0 0 0
2 15 14 97 133 197 167 40 0 0 0 0 0 0 0 0 0 0 0 0 0 0 0 0 0 0 0 0 0 0 0 0 0
4 8 15 25 36 36 40 5 0 0 0 0 0 0 0 0 0 0 0 0 0 11 35 36 19 11 7 0 0 0 0 0 0
0 1 7 1 7 11 0 0 0 0 0 0 0 0 0 0 0 0 0 0 0 0 33 65 106 133 83 85 54 40 17 9 2
0 0 0 0 0 0 0 0 0 0 0 0 0 0 0 0 0 0 0 0 0 0 3 33 61 96 60 78 57 64 62 53 57
0 0 0 0 0 0 0 0 0 0 0 0 0 0 1 1 1 0 2 2 0 0 0 21 35 68 35 55 47 40 46 31 23
0 0 0 0 0 0 0 0 0 0 0 0 0 0 0 9 15 2 6 0 0 4 12 14 32 38 55 49 56 46 1 0 0
0 4 22 21 22 0 0 0 1 0 0 0 0 1 7 11 22 10 5 4 2 2 0 0 0 0 20 74 45 11 0 0 0
67 89 89 62 23 11 6 9 8 0 0 6 17 18 22 9 4 3 5 2 0 0 0 0 0 0 28 77 53 0 0 0 0
108 125 136 97 47 43 26 8 0 0 0 14 33 32 17 12 31 8 2 0 0 0 0 0 0 0 6 74 4 0 0 0 0
213 270 262 199 148 88 57 25 7 2 11 50 39 42 3 19 8 0 0 0 0 0 0 4 2 0 7 6 0 8 2 3 0
371 314 343 351 299 272 149 51 13 18 36 85 68 41 34 21 0 0 0 0 0 0 0 1 1 3 2 11 14 14 10 0 0
391 440 417 362 341 292 199 127 108 59 110 116 66 40 4 0 0 0 0 0 0 0 0 0 0 2 1 3 4 9 0 0 0
336 319 340 314 261 183 163 129 113 100 103 68 93 27 15 0 0 0 3 0 0 0 0 0 0 0 0 0 2 3 7 15 3
211 211 217 181 159 91 59 44 46 59 69 78 56 37 15 0 0 1 0 0 0 0 0 0 0 0 0 0 0 1 11 31 52

GFSFLT1_con_mucape_111.txt.gz
CAPE
887 723 608 335 156 11 10 0 0 0 0 0 0 0 0 0 0 0 0 0 0 0 0 0 0 0 0 0 0 1 1 3 4
931 769 368 266 280 78 43 0 0 0 0 0 0 0 0 0 0 0 0 0 0 0 0 0 0 0 0 0 0 0 0 1 3
713 393 491 602 433 209 101 49 0 0 0 0 0 0 0 0 0 0 0 0 0 0 0 0 0 0 0 0 0 0 0 0 0
476 221 367 461 502 251 217 111 42 0 0 0 0 0 0 0 0 0 0 0 0 0 0 0 0 0 0 0 0 0 0 0 0
182 25 138 353 488 237 101 142 166 31 0 0 0 0 0 0 0 0 0 0 0 0 0 0 0 0 0 0 0 0 0 0 0
7 3 25 157 492 263 55 90 195 66 3 0 0 0 0 0 0 0 0 0 0 0 0 0 0 0 0 0 0 0 0 0 0
6 9 17 58 203 200 104 36 17 0 0 0 0 0 0 0 0 0 0 0 0 0 0 0 0 0 0 0 0 0 0 0 0
4 9 13 18 41 58 46 15 0 0 0 0 0 0 0 0 0 0 0 0 9 44 45 31 12 5 3 0 0 0 0 0 0
2 4 7 9 5 10 11 0 0 0 0 0 0 0 0 0 0 0 0 0 0 11 33 66 119 123 75 77 74 37 12 1 3
3 1 1 1 0 0 0 0 0 0 0 0 0 0 0 0 0 0 0 0 6 3 3 27 55 82 91 64 61 51 52 39 20
0 0 0 0 0 0 0 0 0 0 0 0 0 0 0 0 0 0 1 0 0 12 11 27 42 62 42 59 61 43 28 2 0
0 0 0 0 0 0 0 0 0 0 0 0 0 0 0 0 4 5 13 3 0 10 29 21 18 20 34 39 59 39 0 0 0
0 0 0 0 0 0 0 0 0 0 0 0 0 0 0 2 13 14 6 8 6 7 3 2 0 0 9 99 87 8 0 0 0
0 0 0 5 26 22 13 0 3 3 1 0 9 0 11 12 15 4 6 6 1 0 0 0 0 0 0 159 73 0 0 0 0
0 22 31 43 40 18 5 14 27 12 4 0 28 20 24 38 5 16 6 7 1 0 0 0 0 0 8 138 32 0 0 0 0
61 110 120 113 62 67 52 28 35 23 13 8 23 49 52 19 18 13 6 0 0 0 0 0 0 0 41 16 7 4 7 2 0
155 143 175 220 155 128 94 66 57 47 28 25 84 30 25 11 20 13 0 0 0 0 0 0 0 0 1 12 10 13 13 12 2
366 237 327 315 241 181 163 142 114 80 106 66 89 46 22 8 15 16 0 0 0 0 0 0 0 0 0 0 4 5 8 8 14
362 339 366 397 328 287 239 198 192 154 143 97 130 85 20 11 8 1 0 0 0 0 7 0 0 0 0 0 1 0 0 17 21
288 288 190 159 124 116 129 114 140 127 116 85 57 79 64 11 0 6 1 0 3 0 0 0 0 0 0 0 0 0 0 5 33

GFSFLT1_con_mucape_114.txt.gz
CAPE
1025 777 482 220 50 8 3 0 0 0 0 0 0 0 0 0 0 0 0 0 0 0 0 0 0 0 0 0 2 1 2 2 3
958 650 347 184 87 4 0 0 0 0 0 0 0 0 0 0 0 0 0 0 0 0 0 0 0 0 0 0 1 0 1 2 1
786 604 443 237 3 4 0 0 0 0 0 0 0 0 0 0 0 0 0 0 0 0 0 0 0 0 0 0 0 0 0 1 1
739 506 382 240 219 187 29 0 0 0 0 0 0 0 0 0 0 0 0 0 0 0 0 0 0 0 0 0 0 0 0 0 0
309 350 454 850 736 497 335 75 28 1 0 0 0 0 0 0 0 0 0 0 0 0 0 0 0 0 0 0 0 0 0 0 0
2 9 154 388 420 274 160 305 128 35 0 0 0 0 0 0 0 0 0 0 0 0 0 0 0 0 0 0 0 0 0 0 0
10 1 21 219 233 143 145 232 158 16 0 0 0 0 0 0 0 0 0 0 0 0 0 0 0 0 0 0 0 0 0 0 0
3 0 19 41 23 43 38 8 0 0 0 0 0 0 0 0 0 0 0 0 0 0 9 10 0 9 3 0 0 0 0 0 0
1 0 11 12 10 57 26 0 0 0 0 0 0 0 0 0 0 0 0 66 1 24 56 100 138 105 81 71 41 21 7 2 3
2 1 2 3 8 19 0 0 0 0 0 0 0 0 0 0 0 0 0 0 40 19 25 34 39 82 79 71 57 63 46 24 2
2 1 2 1 0 0 0 5 0 0 0 0 0 0 0 0 0 0 0 0 7 37 19 18 23 33 41 51 45 48 39 0 0
1 1 1 0 0 0 1 0 0 0 0 0 0 0 0 0 0 0 4 3 2 10 31 28 22 33 21 48 63 47 11 0 0
0 0 0 0 0 0 0 0 0 0 0 0 0 0 0 0 0 4 3 4 0 3 5 24 7 0 0 34 64 52 0 0 0
0 0 0 0 0 0 0 0 0 0 0 0 0 0 0 0 3 5 8 2 0 0 0 0 0 0 0 43 91 41 0 0 0
8 11 0 0 0 0 9 27 22 6 12 10 0 3 11 16 13 6 6 0 1 0 0 0 0 0 0 106 67 3 0 0 0
59 0 0 0 0 32 50 37 9 26 18 5 0 16 20 19 18 8 8 3 1 0 0 0 0 0 0 12 12 4 6 2 1
60 25 23 22 56 71 44 20 50 54 26 16 37 27 42 15 23 5 15 16 13 0 0 0 0 0 3 10 17 7 10 6 3
39 62 102 96 107 111 92 91 92 72 58 54 45 50 20 15 0 6 17 20 14 0 0 0 0 0 0 0 0 0 1 1 9
193 187 196 208 208 182 159 157 177 134 80 93 77 78 41 7 5 2 4 33 25 0 0 0 4 2 0 0 0 0 0 3 34
371 367 337 321 440 409 260 161 96 88 75 52 55 83 78 24 1 0 0 35 17 0 0 5 23 24 22 1 0 0 0 0 15

GFSFLT1_con_mucape_117.txt.gz
CAPE
470 236 121 72 31 24 7 8 1 0 0 0 42 41 0 0 0 0 0 0 0 0 1 2 1 1 4 3 2 4 4 4 4
747 603 220 98 9 4 4 0 0 0 0 0 0 0 0 0 0 0 0 0 1 1 1 1 1 1 1 2 1 3 3 3 2
900 435 230 33 2 0 0 0 0 0 0 0 0 0 0 0 0 0 0 2 0 0 0 0 0 2 1 1 1 0 0 0 2
799 510 155 13 8 1 0 0 0 0 0 0 0 0 0 0 0 0 0 0 0 0 0 0 0 0 0 0 0 0 0 0 0
650 352 261 282 260 166 47 0 0 0 0 0 0 0 0 0 0 0 0 0 0 0 0 0 0 0 0 0 0 0 0 0 0
217 10 145 390 523 393 142 44 28 0 0 0 0 0 0 0 0 0 0 0 0 0 0 0 0 0 0 0 0 0 0 0 0
24 7 295 526 413 331 407 359 72 0 0 0 0 0 0 0 0 0 0 0 0 0 0 0 0 0 0 0 0 0 0 0 0
21 1 53 52 44 41 123 173 57 0 0 0 0 0 0 0 0 0 0 0 0 0 0 0 0 3 0 0 0 0 0 0 0
15 17 2 21 22 8 0 0 0 0 0 0 0 0 0 0 0 0 0 34 20 37 58 128 133 99 78 81 62 30 9 1 18
6 26 0 3 17 6 0 0 0 0 0 0 0 0 0 0 0 0 0 0 83 36 39 42 57 73 84 86 91 86 68 57 7
224 65 0 2 14 20 0 0 0 0 0 0 0 0 0 0 0 0 0 0 4 70 32 33 32 43 42 51 84 76 69 16 0
87 43 0 0 0 45 12 0 0 0 0 0 0 0 0 0 0 0 0 0 0 11 26 25 22 44 35 39 85 82 52 0 0
86 19 0 3 3 10 0 0 0 0 0 0 0 0 0 0 0 0 0 1 0 0 0 28 25 10 5 3 56 78 11 0 0
106 15 0 0 1 0 0 0 0 0 0 0 0 0 0 0 0 0 0 0 1 9 0 0 0 0 0 0 28 68 0 0 0
11 4 14 2 0 1 0 0 0 0 0 0 0 0 0 0 0 0 5 4 2 6 0 0 0 0 0 62 118 9 0 0 1
10 39 0 19 21 0 0 0 0 0 7 13 14 0 0 4 7 6 0 6 0 0 6 0 0 0 0 89 55 8 8 1 2
32 41 66 70 42 14 0 0 10 22 19 29 25 12 15 34 13 3 0 1 0 0 8 0 0 0 0 0 1 4 2 1 1
5 30 94 81 20 20 2 21 48 66 40 68 37 32 21 48 35 0 0 0 0 3 13 0 0 0 0 0 0 0 0 0 3
9 31 71 116 97 57 35 105 125 78 73 75 50 49 29 26 10 1 1 0 1 9 11 7 0 0 0 2 8 7 2 0 1
54 78 111 124 115 123 155 172 147 92 147 94 81 78 65 57 57 29 6 3 16 46 28 32 0 0 4 5 5 0 0 0 4